| time (UTC) | temp F | wind direction | speed MPH | gust MPH | rain 1hr in | rain 24hr in | rain mn in | humidity % | barometer mb |
| 20260507091757 | 53 | 240 | 6.0 | 11.0 | 0.00 | 0.00 | 0.00 | 48 | 1019.0 |
| 20260507091523 | 53 | 292 | 5.0 | 11.0 | 0.00 | 0.00 | 0.00 | 48 | 1019.0 |
| 20260507091503 | 53 | 246 | 6.0 | 12.0 | 0.00 | 0.00 | 0.00 | 48 | 1019.0 |
| 20260507091438 | 53 | 261 | 8.0 | 12.0 | 0.00 | 0.00 | 0.00 | 48 | 1018.9 |
| 20260507091149 | 53 | 250 | 6.0 | 12.0 | 0.00 | 0.00 | 0.00 | 48 | 1018.9 |
| 20260507091046 | 53 | 275 | 6.0 | 12.0 | 0.00 | 0.00 | 0.00 | 48 | 1019.0 |
| 20260507090944 | 53 | 261 | 6.0 | 12.0 | 0.00 | 0.00 | 0.00 | 48 | 1019.0 |
| 20260507090847 | 53 | 269 | 5.0 | 12.0 | 0.00 | 0.00 | 0.00 | 48 | 1019.0 |
| 20260507090741 | 53 | 253 | 6.0 | 12.0 | 0.00 | 0.00 | 0.00 | 47 | 1019.0 |
| 20260507090640 | 53 | 252 | 8.0 | 12.0 | 0.00 | 0.00 | 0.00 | 47 | 1018.9 |
| 20260507090538 | 53 | 281 | 7.0 | 12.0 | 0.00 | 0.00 | 0.00 | 47 | 1019.0 |
| 20260507090437 | 53 | 232 | 6.0 | 12.0 | 0.00 | 0.00 | 0.00 | 47 | 1019.1 |
| 20260507090337 | 53 | 250 | 7.0 | 12.0 | 0.00 | 0.00 | 0.00 | 47 | 1019.0 |
| 20260507090240 | 53 | 248 | 8.0 | 12.0 | 0.00 | 0.00 | 0.00 | 47 | 1019.0 |
| 20260507090138 | 53 | 279 | 8.0 | 12.0 | 0.00 | 0.00 | 0.00 | 47 | 1018.9 |
| 20260507090037 | 53 | 261 | 6.0 | 12.0 | 0.00 | 0.00 | 0.00 | 47 | 1019.0 |
| 20260507085938 | 53 | 282 | 4.0 | 12.0 | 0.00 | 0.00 | 0.00 | 47 | 1018.9 |
| 20260507085838 | 54 | 243 | 5.0 | 12.0 | 0.00 | 0.00 | 0.00 | 47 | 1018.8 |
| 20260507085736 | 54 | 267 | 6.0 | 12.0 | 0.00 | 0.00 | 0.00 | 47 | 1018.9 |
| 20260507085639 | 54 | 267 | 6.0 | 12.0 | 0.00 | 0.00 | 0.00 | 47 | 1018.8 |
| 20260507085537 | 54 | 281 | 5.0 | 12.0 | 0.00 | 0.00 | 0.00 | 47 | 1018.8 |
| 20260507085437 | 54 | 274 | 6.0 | 12.0 | 0.00 | 0.00 | 0.00 | 47 | 1018.9 |
| 20260507085337 | 54 | 275 | 8.0 | 12.0 | 0.00 | 0.00 | 0.00 | 47 | 1018.8 |
| 20260507085237 | 54 | 265 | 6.0 | 11.0 | 0.00 | 0.00 | 0.00 | 47 | 1018.8 |
| 20260507085138 | 54 | 255 | 6.0 | 11.0 | 0.00 | 0.00 | 0.00 | 47 | 1018.7 |
| 20260507085044 | 54 | 272 | 6.0 | 11.0 | 0.00 | 0.00 | 0.00 | 47 | 1018.8 |
| 20260507085020 | 54 | 286 | 7.0 | 11.0 | 0.00 | 0.00 | 0.00 | 47 | 1018.8 |
| 20260507084956 | 54 | 244 | 7.0 | 11.0 | 0.00 | 0.00 | 0.00 | 47 | 1018.7 |
| 20260507084931 | 54 | 262 | 6.0 | 11.0 | 0.00 | 0.00 | 0.00 | 47 | 1018.9 |
| 20260507084629 | 54 | 258 | 5.0 | 11.0 | 0.00 | 0.00 | 0.00 | 47 | 1018.7 |
| 20260507084527 | 54 | 276 | 6.0 | 11.0 | 0.00 | 0.00 | 0.00 | 47 | 1018.8 |
| 20260507084426 | 54 | 261 | 6.0 | 11.0 | 0.00 | 0.00 | 0.00 | 47 | 1018.8 |
| 20260507084323 | 54 | 260 | 6.0 | 11.0 | 0.00 | 0.00 | 0.00 | 47 | 1018.8 |
| 20260507084223 | 54 | 276 | 6.0 | 11.0 | 0.00 | 0.00 | 0.00 | 47 | 1018.7 |
| 20260507084122 | 54 | 280 | 5.0 | 11.0 | 0.00 | 0.00 | 0.00 | 47 | 1018.7 |
| 20260507084019 | 54 | 290 | 6.0 | 11.0 | 0.00 | 0.00 | 0.00 | 47 | 1018.8 |
| 20260507083956 | 54 | 268 | 6.0 | 11.0 | 0.00 | 0.00 | 0.00 | 46 | 1018.7 |
| 20260507083930 | 54 | 276 | 5.0 | 11.0 | 0.00 | 0.00 | 0.00 | 46 | 1018.6 |
| 20260507083906 | 54 | 242 | 6.0 | 12.0 | 0.00 | 0.00 | 0.00 | 46 | 1018.7 |
| 20260507083835 | 54 | 260 | 6.0 | 13.0 | 0.00 | 0.00 | 0.00 | 47 | 1018.7 |
| 20260507083531 | 54 | 252 | 5.0 | 13.0 | 0.00 | 0.00 | 0.00 | 46 | 1018.6 |
| 20260507083508 | 54 | 300 | 5.0 | 13.0 | 0.00 | 0.00 | 0.00 | 47 | 1018.6 |
| 20260507083447 | 54 | 288 | 5.0 | 13.0 | 0.00 | 0.00 | 0.00 | 46 | 1018.6 |
| 20260507083424 | 54 | 281 | 5.0 | 13.0 | 0.00 | 0.00 | 0.00 | 46 | 1018.5 |
| 20260507083110 | 54 | 255 | 5.0 | 13.0 | 0.00 | 0.00 | 0.00 | 46 | 1018.6 |
| 20260507083009 | 54 | 278 | 6.0 | 13.0 | 0.00 | 0.00 | 0.00 | 46 | 1018.5 |
| 20260507082908 | 54 | 278 | 9.0 | 13.0 | 0.00 | 0.00 | 0.00 | 46 | 1018.6 |
| 20260507082812 | 54 | 275 | 7.0 | 13.0 | 0.00 | 0.00 | 0.00 | 46 | 1018.5 |
| 20260507082621 | 54 | 270 | 5.0 | 10.0 | 0.00 | 0.00 | 0.00 | 46 | 1018.5 |
| 20260507082512 | 54 | 277 | 6.0 | 10.0 | 0.00 | 0.00 | 0.00 | 46 | 1018.5 |
| 20260507082410 | 55 | 264 | 4.0 | 10.0 | 0.00 | 0.00 | 0.00 | 46 | 1018.4 |
| 20260507082312 | 55 | 257 | 4.0 | 8.0 | 0.00 | 0.00 | 0.00 | 46 | 1018.6 |
| 20260507082109 | 55 | 281 | 2.0 | 11.0 | 0.00 | 0.00 | 0.00 | 46 | 1018.6 |
| 20260507082009 | 55 | 268 | 3.0 | 11.0 | 0.00 | 0.00 | 0.00 | 45 | 1018.5 |
| 20260507081912 | 55 | 269 | 4.0 | 12.0 | 0.00 | 0.00 | 0.00 | 45 | 1018.5 |
| 20260507081811 | 55 | 273 | 5.0 | 15.0 | 0.00 | 0.00 | 0.00 | 45 | 1018.5 |
| 20260507081611 | 55 | 275 | 4.0 | 18.0 | 0.00 | 0.00 | 0.00 | 45 | 1018.4 |
| 20260507081509 | 55 | 254 | 4.0 | 18.0 | 0.00 | 0.00 | 0.00 | 45 | 1018.3 |
| 20260507081411 | 55 | 270 | 7.0 | 18.0 | 0.00 | 0.00 | 0.00 | 45 | 1018.4 |
| 20260507081310 | 55 | 271 | 9.0 | 18.0 | 0.00 | 0.00 | 0.00 | 45 | 1018.2 |
| 20260507081110 | 55 | 293 | 10.0 | 18.0 | 0.00 | 0.00 | 0.00 | 45 | 1018.1 |
| 20260507081009 | 55 | 265 | 11.0 | 18.0 | 0.00 | 0.00 | 0.00 | 44 | 1018.2 |
| 20260507080914 | 55 | 273 | 11.0 | 18.0 | 0.00 | 0.00 | 0.00 | 44 | 1018.1 |
| 20260507080811 | 55 | 265 | 10.0 | 18.0 | 0.00 | 0.00 | 0.00 | 44 | 1018.1 |
| 20260507080634 | 55 | 278 | 6.0 | 16.0 | 0.00 | 0.00 | 0.00 | 45 | 1018.1 |
| 20260507080509 | 55 | 265 | 8.0 | 16.0 | 0.00 | 0.00 | 0.00 | 44 | 1018.0 |
| 20260507080409 | 55 | 266 | 10.0 | 16.0 | 0.00 | 0.00 | 0.00 | 44 | 1018.0 |
| 20260507080313 | 55 | 255 | 10.0 | 16.0 | 0.00 | 0.00 | 0.00 | 44 | 1018.0 |
| 20260507080111 | 55 | 318 | 7.0 | 13.0 | 0.00 | 0.00 | 0.00 | 44 | 1017.9 |
| 20260507080009 | 55 | 288 | 8.0 | 12.0 | 0.00 | 0.00 | 0.00 | 44 | 1018.0 |
| 20260507075909 | 55 | 263 | 8.0 | 12.0 | 0.00 | 0.00 | 0.00 | 44 | 1017.9 |
| 20260507075810 | 55 | 286 | 8.0 | 12.0 | 0.00 | 0.00 | 0.00 | 44 | 1017.9 |
| 20260507075615 | 55 | 249 | 8.0 | 12.0 | 0.00 | 0.00 | 0.00 | 44 | 1017.9 |
| 20260507075511 | 55 | 265 | 8.0 | 12.0 | 0.00 | 0.00 | 0.00 | 44 | 1017.8 |
| 20260507075411 | 55 | 265 | 9.0 | 12.0 | 0.00 | 0.00 | 0.00 | 44 | 1017.7 |
| 20260507075311 | 55 | 284 | 8.0 | 12.0 | 0.00 | 0.00 | 0.00 | 43 | 1017.7 |
| 20260507075110 | 55 | 243 | 9.0 | 13.0 | 0.00 | 0.00 | 0.00 | 43 | 1017.7 |
| 20260507075011 | 55 | 284 | 8.0 | 13.0 | 0.00 | 0.00 | 0.00 | 43 | 1017.7 |
| 20260507074912 | 55 | 277 | 8.0 | 13.0 | 0.00 | 0.00 | 0.00 | 43 | 1017.7 |
| 20260507074812 | 55 | 277 | 9.0 | 13.0 | 0.00 | 0.00 | 0.00 | 43 | 1017.7 |
| 20260507074612 | 56 | 261 | 8.0 | 13.0 | 0.00 | 0.00 | 0.00 | 43 | 1017.6 |
| 20260507074509 | 56 | 228 | 8.0 | 13.0 | 0.00 | 0.00 | 0.00 | 43 | 1017.6 |
| 20260507074403 | 56 | 254 | 10.0 | 13.0 | 0.00 | 0.00 | 0.00 | 43 | 1017.6 |
| 20260507074300 | 56 | 251 | 11.0 | 13.0 | 0.00 | 0.00 | 0.00 | 43 | 1017.6 |
| 20260507074155 | 56 | 273 | 8.0 | 13.0 | 0.00 | 0.00 | 0.00 | 43 | 1017.6 |
| 20260507074054 | 56 | 261 | 6.0 | 13.0 | 0.00 | 0.00 | 0.00 | 43 | 1017.5 |
| 20260507073950 | 56 | 254 | 6.0 | 13.0 | 0.00 | 0.00 | 0.00 | 43 | 1017.5 |
| 20260507073849 | 56 | 245 | 7.0 | 18.0 | 0.00 | 0.00 | 0.00 | 42 | 1017.5 |
| 20260507073744 | 56 | 245 | 7.0 | 19.0 | 0.00 | 0.00 | 0.00 | 42 | 1017.5 |
| 20260507073645 | 56 | 256 | 7.0 | 19.0 | 0.00 | 0.00 | 0.00 | 42 | 1017.4 |
| 20260507073621 | 56 | 257 | 8.0 | 19.0 | 0.00 | 0.00 | 0.00 | 42 | 1017.5 |
| 20260507073524 | 56 | 233 | 9.0 | 19.0 | 0.00 | 0.00 | 0.00 | 42 | 1017.4 |
| 20260507073501 | 56 | 260 | 11.0 | 19.0 | 0.00 | 0.00 | 0.00 | 42 | 1017.5 |
| 20260507073439 | 56 | 271 | 9.0 | 19.0 | 0.00 | 0.00 | 0.00 | 42 | 1017.5 |
| 20260507073136 | 56 | 254 | 8.0 | 19.0 | 0.00 | 0.00 | 0.00 | 42 | 1017.5 |
| 20260507073037 | 56 | 252 | 11.0 | 19.0 | 0.00 | 0.00 | 0.00 | 42 | 1017.5 |
| 20260507072938 | 56 | 276 | 12.0 | 19.0 | 0.00 | 0.00 | 0.00 | 42 | 1017.4 |
| 20260507072838 | 56 | 254 | 12.0 | 18.0 | 0.00 | 0.00 | 0.00 | 42 | 1017.5 |
| 20260507072739 | 56 | 259 | 11.0 | 18.0 | 0.00 | 0.00 | 0.00 | 42 | 1017.5 |
| 20260507072639 | 56 | 261 | 8.0 | 18.0 | 0.00 | 0.00 | 0.00 | 42 | 1017.5 |
| 20260507072539 | 56 | 263 | 8.0 | 16.0 | 0.00 | 0.00 | 0.00 | 42 | 1017.4 |
| 20260507072439 | 56 | 256 | 8.0 | 16.0 | 0.00 | 0.00 | 0.00 | 42 | 1017.4 |
| 20260507072336 | 56 | 270 | 7.0 | 16.0 | 0.00 | 0.00 | 0.00 | 42 | 1017.3 |
| 20260507072238 | 56 | 265 | 7.0 | 17.0 | 0.00 | 0.00 | 0.00 | 42 | 1017.2 |
| 20260507072139 | 56 | 226 | 8.0 | 20.0 | 0.00 | 0.00 | 0.00 | 42 | 1017.2 |
| 20260507072037 | 56 | 250 | 9.0 | 21.0 | 0.00 | 0.00 | 0.00 | 42 | 1017.4 |
| 20260507071938 | 56 | 221 | 9.0 | 21.0 | 0.00 | 0.00 | 0.00 | 42 | 1017.4 |
| 20260507071838 | 56 | 272 | 12.0 | 21.0 | 0.00 | 0.00 | 0.00 | 42 | 1017.2 |
| 20260507071738 | 56 | 314 | 13.0 | 21.0 | 0.00 | 0.00 | 0.00 | 41 | 1017.2 |
| 20260507071637 | 56 | 247 | 11.0 | 21.0 | 0.00 | 0.00 | 0.00 | 42 | 1017.2 |
| 20260507071538 | 56 | 238 | 9.0 | 21.0 | 0.00 | 0.00 | 0.00 | 42 | 1017.1 |
| 20260507071434 | 56 | 242 | 9.0 | 21.0 | 0.00 | 0.00 | 0.00 | 42 | 1017.2 |
| 20260507071332 | 56 | 297 | 13.0 | 21.0 | 0.00 | 0.00 | 0.00 | 41 | 1017.2 |
| 20260507071231 | 56 | 256 | 13.0 | 21.0 | 0.00 | 0.00 | 0.00 | 41 | 1017.1 |
| 20260507071135 | 56 | 288 | 9.0 | 21.0 | 0.00 | 0.00 | 0.00 | 42 | 1017.1 |
| 20260507071027 | 57 | 271 | 8.0 | 21.0 | 0.00 | 0.00 | 0.00 | 42 | 1017.2 |
| 20260507070926 | 57 | 246 | 9.0 | 21.0 | 0.00 | 0.00 | 0.00 | 42 | 1017.2 |
| 20260507070828 | 57 | 254 | 8.0 | 21.0 | 0.00 | 0.00 | 0.00 | 41 | 1017.2 |
| 20260507070726 | 57 | 265 | 8.0 | 21.0 | 0.00 | 0.00 | 0.00 | 41 | 1017.1 |
| 20260507070623 | 57 | 309 | 11.0 | 21.0 | 0.00 | 0.00 | 0.00 | 41 | 1017.1 |
| 20260507070544 | 57 | 251 | 13.0 | 21.0 | 0.00 | 0.00 | 0.00 | 41 | 1017.1 |
| 20260507070416 | 57 | 292 | 14.0 | 21.0 | 0.00 | 0.00 | 0.00 | 41 | 1017.2 |
| 20260507070314 | 57 | 275 | 14.0 | 21.0 | 0.00 | 0.00 | 0.00 | 41 | 1017.2 |
| 20260507070109 | 57 | 292 | 7.0 | 26.0 | 0.00 | 0.00 | 0.00 | 41 | 1017.1 |
| 20260507070013 | 57 | 279 | 8.0 | 26.0 | 0.00 | 0.00 | 0.00 | 41 | 1017.0 |
| 20260507065910 | 57 | 248 | 9.0 | 26.0 | 0.00 | 0.00 | 0.00 | 41 | 1017.2 |
| 20260507065810 | 57 | 270 | 10.0 | 26.0 | 0.00 | 0.00 | 0.00 | 40 | 1016.9 |
| 20260507065623 | 57 | 260 | 12.0 | 26.0 | 0.00 | 0.00 | 0.00 | 40 | 1017.1 |
| 20260507065509 | 58 | 267 | 13.0 | 26.0 | 0.00 | 0.00 | 0.00 | 40 | 1017.1 |
| 20260507065416 | 58 | 279 | 11.0 | 26.0 | 0.00 | 0.00 | 0.00 | 40 | 1017.0 |
| 20260507065311 | 58 | 282 | 10.0 | 26.0 | 0.00 | 0.00 | 0.00 | 39 | 1017.1 |
| 20260507065108 | 58 | 262 | 11.0 | 19.0 | 0.00 | 0.00 | 0.00 | 39 | 1017.0 |
| 20260507065011 | 58 | 244 | 12.0 | 19.0 | 0.00 | 0.00 | 0.00 | 39 | 1017.0 |
| 20260507064909 | 58 | 269 | 11.0 | 19.0 | 0.00 | 0.00 | 0.00 | 39 | 1016.9 |
| 20260507064810 | 58 | 254 | 10.0 | 19.0 | 0.00 | 0.00 | 0.00 | 39 | 1016.8 |
| 20260507064612 | 58 | 280 | 9.0 | 19.0 | 0.00 | 0.00 | 0.00 | 39 | 1016.8 |
| 20260507064502 | 58 | 246 | 9.0 | 19.0 | 0.00 | 0.00 | 0.00 | 39 | 1016.7 |
| 20260507064359 | 58 | 252 | 11.0 | 19.0 | 0.00 | 0.00 | 0.00 | 39 | 1016.6 |
| 20260507064258 | 58 | 250 | 13.0 | 19.0 | 0.00 | 0.00 | 0.00 | 38 | 1016.6 |
| 20260507064153 | 58 | 243 | 13.0 | 19.0 | 0.00 | 0.00 | 0.00 | 39 | 1016.7 |
| 20260507064055 | 58 | 240 | 11.0 | 19.0 | 0.00 | 0.00 | 0.00 | 39 | 1016.8 |
| 20260507063951 | 58 | 230 | 8.0 | 19.0 | 0.00 | 0.00 | 0.00 | 39 | 1016.8 |
| 20260507063848 | 59 | 264 | 8.0 | 16.0 | 0.00 | 0.00 | 0.00 | 39 | 1016.8 |
| 20260507063748 | 59 | 280 | 9.0 | 16.0 | 0.00 | 0.00 | 0.00 | 39 | 1016.8 |
| 20260507063647 | 59 | 267 | 10.0 | 16.0 | 0.00 | 0.00 | 0.00 | 38 | 1016.7 |
| 20260507063540 | 59 | 228 | 10.0 | 16.0 | 0.00 | 0.00 | 0.00 | 38 | 1016.8 |
| 20260507063444 | 59 | 232 | 9.0 | 16.0 | 0.00 | 0.00 | 0.00 | 38 | 1016.9 |
| 20260507063337 | 59 | 260 | 10.0 | 16.0 | 0.00 | 0.00 | 0.00 | 38 | 1016.8 |
| 20260507063245 | 59 | 256 | 9.0 | 16.0 | 0.00 | 0.00 | 0.00 | 38 | 1016.9 |
| 20260507063140 | 59 | 232 | 7.0 | 16.0 | 0.00 | 0.00 | 0.00 | 38 | 1016.9 |
| 20260507063040 | 59 | 246 | 9.0 | 16.0 | 0.00 | 0.00 | 0.00 | 38 | 1016.8 |
| 20260507062945 | 59 | 269 | 10.0 | 16.0 | 0.00 | 0.00 | 0.00 | 38 | 1016.8 |
| 20260507062836 | 59 | 225 | 11.0 | 16.0 | 0.00 | 0.00 | 0.00 | 38 | 1016.8 |
| 20260507062738 | 59 | 263 | 9.0 | 15.0 | 0.00 | 0.00 | 0.00 | 39 | 1016.8 |
| 20260507062637 | 59 | 239 | 8.0 | 15.0 | 0.00 | 0.00 | 0.00 | 39 | 1016.7 |
| 20260507062537 | 59 | 276 | 9.0 | 19.0 | 0.00 | 0.00 | 0.00 | 39 | 1016.8 |
| 20260507062442 | 59 | 270 | 9.0 | 22.0 | 0.00 | 0.00 | 0.00 | 38 | 1016.9 |
| 20260507062339 | 59 | 228 | 7.0 | 22.0 | 0.00 | 0.00 | 0.00 | 39 | 1016.9 |
| 20260507062237 | 59 | 225 | 7.0 | 22.0 | 0.00 | 0.00 | 0.00 | 39 | 1016.8 |
| 20260507062136 | 59 | 234 | 8.0 | 22.0 | 0.00 | 0.00 | 0.00 | 38 | 1016.7 |
| 20260507062037 | 59 | 251 | 9.0 | 22.0 | 0.00 | 0.00 | 0.00 | 38 | 1016.7 |
| 20260507061940 | 59 | 306 | 10.0 | 22.0 | 0.00 | 0.00 | 0.00 | 38 | 1016.7 |
| 20260507061838 | 59 | 267 | 11.0 | 22.0 | 0.00 | 0.00 | 0.00 | 38 | 1016.5 |
| 20260507061737 | 59 | 259 | 11.0 | 22.0 | 0.00 | 0.00 | 0.00 | 38 | 1016.6 |
| 20260507061639 | 60 | 281 | 12.0 | 22.0 | 0.00 | 0.00 | 0.00 | 38 | 1016.6 |
| 20260507061540 | 60 | 225 | 12.0 | 22.0 | 0.00 | 0.00 | 0.00 | 38 | 1016.5 |
| 20260507061434 | 60 | 273 | 11.0 | 19.0 | 0.00 | 0.00 | 0.00 | 38 | 1016.5 |
| 20260507061335 | 60 | 274 | 10.0 | 24.0 | 0.00 | 0.00 | 0.00 | 38 | 1016.7 |
| 20260507061231 | 60 | 278 | 10.0 | 24.0 | 0.00 | 0.00 | 0.00 | 38 | 1016.5 |
| 20260507061126 | 60 | 259 | 11.0 | 24.0 | 0.00 | 0.00 | 0.00 | 37 | 1016.6 |
| 20260507061026 | 60 | 269 | 12.0 | 24.0 | 0.00 | 0.00 | 0.00 | 37 | 1016.5 |
| 20260507060931 | 60 | 255 | 11.0 | 24.0 | 0.00 | 0.00 | 0.00 | 37 | 1016.5 |
| 20260507060821 | 60 | 244 | 11.0 | 24.0 | 0.00 | 0.00 | 0.00 | 37 | 1016.4 |
| 20260507060716 | 60 | 237 | 12.0 | 24.0 | 0.00 | 0.00 | 0.00 | 37 | 1016.5 |
| 20260507060614 | 60 | 254 | 13.0 | 24.0 | 0.00 | 0.00 | 0.00 | 36 | 1016.3 |
| 20260507060526 | 60 | 234 | 13.0 | 24.0 | 0.00 | 0.00 | 0.00 | 36 | 1016.4 |
| 20260507060410 | 60 | 247 | 9.0 | 24.0 | 0.00 | 0.00 | 0.00 | 36 | 1016.4 |
| 20260507060314 | 60 | 257 | 9.0 | 19.0 | 0.00 | 0.00 | 0.00 | 36 | 1016.5 |
| 20260507060110 | 60 | 273 | 10.0 | 19.0 | 0.00 | 0.00 | 0.00 | 36 | 1016.3 |
| 20260507060042 | 60 | 273 | 10.0 | 19.0 | 0.00 | 0.00 | 0.00 | 36 | 1016.3 |
| 20260507060014 | 60 | 243 | 10.0 | 19.0 | 0.00 | 0.00 | 0.00 | 36 | 1016.2 |
| 20260507055950 | 60 | 246 | 12.0 | 19.0 | 0.00 | 0.00 | 0.00 | 35 | 1016.3 |
| 20260507055921 | 60 | 275 | 13.0 | 19.0 | 0.00 | 0.00 | 0.00 | 35 | 1016.2 |
| 20260507055612 | 60 | 258 | 12.0 | 19.0 | 0.00 | 0.00 | 0.00 | 35 | 1016.3 |
| 20260507055509 | 61 | 250 | 12.0 | 19.0 | 0.00 | 0.00 | 0.00 | 35 | 1016.3 |
| 20260507055424 | 61 | 255 | 11.0 | 19.0 | 0.00 | 0.00 | 0.00 | 35 | 1016.4 |
| 20260507055312 | 61 | 219 | 11.0 | 19.0 | 0.00 | 0.00 | 0.00 | 35 | 1016.4 |
| 20260507055109 | 61 | 214 | 8.0 | 18.0 | 0.00 | 0.00 | 0.00 | 35 | 1016.4 |
| 20260507055010 | 61 | 207 | 8.0 | 20.0 | 0.00 | 0.00 | 0.00 | 35 | 1016.4 |
| 20260507054916 | 61 | 227 | 8.0 | 20.0 | 0.00 | 0.00 | 0.00 | 35 | 1016.4 |
| 20260507054813 | 61 | 263 | 11.0 | 20.0 | 0.00 | 0.00 | 0.00 | 35 | 1016.4 |
| 20260507054612 | 61 | 226 | 10.0 | 20.0 | 0.00 | 0.00 | 0.00 | 34 | 1016.5 |
| 20260507054510 | 61 | 256 | 9.0 | 20.0 | 0.00 | 0.00 | 0.00 | 34 | 1016.5 |
| 20260507054412 | 61 | 238 | 10.0 | 27.0 | 0.00 | 0.00 | 0.00 | 34 | 1016.4 |
| 20260507054314 | 61 | 261 | 10.0 | 27.0 | 0.00 | 0.00 | 0.00 | 34 | 1016.5 |
| 20260507054113 | 61 | 234 | 8.0 | 27.0 | 0.00 | 0.00 | 0.00 | 34 | 1016.5 |
| 20260507054039 | 61 | 205 | 8.0 | 27.0 | 0.00 | 0.00 | 0.00 | 34 | 1016.5 |
| 20260507054015 | 61 | 229 | 11.0 | 27.0 | 0.00 | 0.00 | 0.00 | 34 | 1016.4 |
| 20260507053943 | 61 | 310 | 12.0 | 27.0 | 0.00 | 0.00 | 0.00 | 34 | 1016.4 |
| 20260507053634 | 61 | 275 | 14.0 | 27.0 | 0.00 | 0.00 | 0.00 | 34 | 1016.5 |
| 20260507053609 | 61 | 273 | 10.0 | 27.0 | 0.00 | 0.00 | 0.00 | 34 | 1016.4 |
| 20260507053548 | 61 | 259 | 9.0 | 20.0 | 0.00 | 0.00 | 0.00 | 34 | 1016.3 |
| 20260507053515 | 61 | 262 | 11.0 | 20.0 | 0.00 | 0.00 | 0.00 | 34 | 1016.3 |
| 20260507053421 | 61 | 255 | 11.0 | 20.0 | 0.00 | 0.00 | 0.00 | 33 | 1016.3 |
| 20260507053109 | 61 | 252 | 11.0 | 20.0 | 0.00 | 0.00 | 0.00 | 34 | 1016.2 |
| 20260507053012 | 61 | 242 | 9.0 | 20.0 | 0.00 | 0.00 | 0.00 | 33 | 1016.2 |
| 20260507052910 | 62 | 238 | 10.0 | 20.0 | 0.00 | 0.00 | 0.00 | 34 | 1016.0 |
| 20260507052812 | 62 | 243 | 12.0 | 20.0 | 0.00 | 0.00 | 0.00 | 33 | 1016.1 |
| 20260507052613 | 62 | 211 | 10.0 | 20.0 | 0.00 | 0.00 | 0.00 | 34 | 1016.1 |
| 20260507052510 | 62 | 252 | 10.0 | 17.0 | 0.00 | 0.00 | 0.00 | 34 | 1016.2 |
| 20260507052409 | 62 | 253 | 8.0 | 17.0 | 0.00 | 0.00 | 0.00 | 34 | 1016.2 |
| 20260507052310 | 62 | 220 | 8.0 | 18.0 | 0.00 | 0.00 | 0.00 | 34 | 1016.1 |
| 20260507052108 | 62 | 275 | 10.0 | 18.0 | 0.00 | 0.00 | 0.00 | 34 | 1016.1 |
| 20260507052010 | 62 | 237 | 10.0 | 18.0 | 0.00 | 0.00 | 0.00 | 34 | 1016.1 |
| 20260507051909 | 62 | 276 | 9.0 | 18.0 | 0.00 | 0.00 | 0.00 | 34 | 1016.1 |
| 20260507051810 | 62 | 250 | 9.0 | 18.0 | 0.00 | 0.00 | 0.00 | 34 | 1016.1 |
| 20260507051611 | 62 | 246 | 11.0 | 18.0 | 0.00 | 0.00 | 0.00 | 34 | 1016.0 |
| 20260507051509 | 62 | 291 | 12.0 | 18.0 | 0.00 | 0.00 | 0.00 | 34 | 1016.0 |
| 20260507051409 | 62 | 279 | 9.0 | 18.0 | 0.00 | 0.00 | 0.00 | 33 | 1016.0 |
| 20260507051311 | 62 | 250 | 11.0 | 19.0 | 0.00 | 0.00 | 0.00 | 33 | 1016.0 |
| 20260507051109 | 62 | 244 | 12.0 | 19.0 | 0.00 | 0.00 | 0.00 | 32 | 1016.0 |
| 20260507051010 | 62 | 263 | 11.0 | 19.0 | 0.00 | 0.00 | 0.00 | 33 | 1016.0 |
| 20260507050909 | 62 | 259 | 12.0 | 19.0 | 0.00 | 0.00 | 0.00 | 33 | 1015.9 |
| 20260507050814 | 62 | 267 | 13.0 | 19.0 | 0.00 | 0.00 | 0.00 | 32 | 1016.0 |
| 20260507050613 | 62 | 202 | 12.0 | 19.0 | 0.00 | 0.00 | 0.00 | 33 | 1016.1 |
| 20260507050508 | 62 | 255 | 11.0 | 19.0 | 0.00 | 0.00 | 0.00 | 33 | 1016.0 |
| 20260507050424 | 62 | 278 | 10.0 | 20.0 | 0.00 | 0.00 | 0.00 | 33 | 1015.8 |
| 20260507050323 | 62 | 213 | 9.0 | 20.0 | 0.00 | 0.00 | 0.00 | 33 | 1016.1 |
| 20260507050113 | 62 | 176 | 11.0 | 20.0 | 0.00 | 0.00 | 0.00 | 32 | 1016.1 |
| 20260507050009 | 62 | 242 | 13.0 | 20.0 | 0.00 | 0.00 | 0.00 | 32 | 1016.0 |
| 20260507045908 | 62 | 243 | 12.0 | 20.0 | 0.00 | 0.00 | 0.00 | 32 | 1016.1 |
| 20260507045812 | 62 | 262 | 11.0 | 20.0 | 0.00 | 0.00 | 0.00 | 32 | 1015.9 |
| 20260507045611 | 62 | 271 | 13.0 | 20.0 | 0.00 | 0.00 | 0.00 | 31 | 1015.9 |
| 20260507045508 | 62 | 267 | 10.0 | 20.0 | 0.00 | 0.00 | 0.00 | 32 | 1016.0 |
| 20260507045411 | 62 | 270 | 11.0 | 17.0 | 0.00 | 0.00 | 0.00 | 32 | 1016.1 |
| 20260507045310 | 62 | 254 | 11.0 | 17.0 | 0.00 | 0.00 | 0.00 | 32 | 1016.0 |
| 20260507045112 | 62 | 271 | 9.0 | 18.0 | 0.00 | 0.00 | 0.00 | 32 | 1016.0 |
| 20260507045017 | 62 | 236 | 9.0 | 18.0 | 0.00 | 0.00 | 0.00 | 32 | 1016.0 |
| 20260507044952 | 62 | 267 | 9.0 | 22.0 | 0.00 | 0.00 | 0.00 | 32 | 1015.9 |
| 20260507044920 | 62 | 215 | 7.0 | 22.0 | 0.00 | 0.00 | 0.00 | 32 | 1015.9 |
| 20260507044611 | 62 | 263 | 8.0 | 22.0 | 0.00 | 0.00 | 0.00 | 32 | 1015.8 |
| 20260507044544 | 62 | 252 | 9.0 | 22.0 | 0.00 | 0.00 | 0.00 | 32 | 1015.8 |
| 20260507044520 | 62 | 238 | 11.0 | 22.0 | 0.00 | 0.00 | 0.00 | 32 | 1015.8 |
| 20260507044449 | 62 | 265 | 12.0 | 22.0 | 0.00 | 0.00 | 0.00 | 31 | 1016.0 |
| 20260507044424 | 63 | 265 | 12.0 | 22.0 | 0.00 | 0.00 | 0.00 | 31 | 1015.8 |
| 20260507044109 | 63 | 247 | 12.0 | 22.0 | 0.00 | 0.00 | 0.00 | 32 | 1015.9 |
| 20260507044009 | 63 | 232 | 11.0 | 22.0 | 0.00 | 0.00 | 0.00 | 31 | 1015.7 |
| 20260507043910 | 63 | 244 | 11.0 | 19.0 | 0.00 | 0.00 | 0.00 | 31 | 1015.7 |
| 20260507043813 | 63 | 256 | 11.0 | 19.0 | 0.00 | 0.00 | 0.00 | 31 | 1015.7 |
| 20260507043610 | 63 | 240 | 11.0 | 19.0 | 0.00 | 0.00 | 0.00 | 32 | 1015.9 |
| 20260507043509 | 63 | 290 | 12.0 | 19.0 | 0.00 | 0.00 | 0.00 | 32 | 1015.9 |
| 20260507043414 | 63 | 221 | 10.0 | 19.0 | 0.00 | 0.00 | 0.00 | 32 | 1015.8 |
| 20260507043311 | 63 | 268 | 10.0 | 18.0 | 0.00 | 0.00 | 0.00 | 32 | 1015.9 |
| 20260507043110 | 63 | 245 | 8.0 | 18.0 | 0.00 | 0.00 | 0.00 | 32 | 1015.6 |
| 20260507043013 | 63 | 246 | 6.0 | 18.0 | 0.00 | 0.00 | 0.00 | 32 | 1015.8 |
| 20260507042911 | 63 | 242 | 7.0 | 18.0 | 0.00 | 0.00 | 0.00 | 33 | 1015.7 |
| 20260507042818 | 63 | 238 | 9.0 | 18.0 | 0.00 | 0.00 | 0.00 | 32 | 1015.6 |
| 20260507042613 | 63 | 222 | 7.0 | 18.0 | 0.00 | 0.00 | 0.00 | 32 | 1015.7 |
| 20260507042538 | 63 | 225 | 8.0 | 16.0 | 0.00 | 0.00 | 0.00 | 32 | 1015.8 |
| 20260507042513 | 63 | 252 | 7.0 | 16.0 | 0.00 | 0.00 | 0.00 | 32 | 1015.7 |
| 20260507042446 | 63 | 280 | 8.0 | 21.0 | 0.00 | 0.00 | 0.00 | 31 | 1015.7 |
| 20260507042207 | 63 | 217 | 8.0 | 22.0 | 0.00 | 0.00 | 0.00 | 32 | 1015.7 |
| 20260507042109 | 63 | 240 | 9.0 | 22.0 | 0.00 | 0.00 | 0.00 | 31 | 1015.7 |
| 20260507042008 | 62 | 266 | 11.0 | 25.0 | 0.00 | 0.00 | 0.00 | 31 | 1015.8 |
| 20260507041907 | 62 | 296 | 12.0 | 25.0 | 0.00 | 0.00 | 0.00 | 31 | 1015.7 |
| 20260507041805 | 62 | 264 | 11.0 | 25.0 | 0.00 | 0.00 | 0.00 | 31 | 1015.7 |
| 20260507041703 | 62 | 267 | 11.0 | 25.0 | 0.00 | 0.00 | 0.00 | 30 | 1015.6 |
| 20260507041600 | 62 | 263 | 13.0 | 25.0 | 0.00 | 0.00 | 0.00 | 30 | 1015.7 |
| 20260507041501 | 63 | 217 | 15.0 | 25.0 | 0.00 | 0.00 | 0.00 | 30 | 1015.6 |
| 20260507041359 | 63 | 244 | 14.0 | 25.0 | 0.00 | 0.00 | 0.00 | 30 | 1015.6 |
| 20260507041254 | 63 | 284 | 13.0 | 25.0 | 0.00 | 0.00 | 0.00 | 31 | 1015.6 |
| 20260507041152 | 63 | 243 | 13.0 | 25.0 | 0.00 | 0.00 | 0.00 | 31 | 1015.5 |
| 20260507041050 | 63 | 247 | 11.0 | 25.0 | 0.00 | 0.00 | 0.00 | 31 | 1015.5 |
| 20260507040952 | 63 | 257 | 11.0 | 20.0 | 0.00 | 0.00 | 0.00 | 31 | 1015.5 |
| 20260507040847 | 63 | 267 | 12.0 | 20.0 | 0.00 | 0.00 | 0.00 | 30 | 1015.6 |
| 20260507040749 | 63 | 273 | 12.0 | 19.0 | 0.00 | 0.00 | 0.00 | 31 | 1015.5 |
| 20260507040650 | 63 | 250 | 10.0 | 19.0 | 0.00 | 0.00 | 0.00 | 31 | 1015.4 |
| 20260507040542 | 63 | 237 | 9.0 | 19.0 | 0.00 | 0.00 | 0.00 | 32 | 1015.3 |
| 20260507040437 | 63 | 232 | 11.0 | 19.0 | 0.00 | 0.00 | 0.00 | 31 | 1015.3 |
| 20260507040349 | 63 | 233 | 12.0 | 19.0 | 0.00 | 0.00 | 0.00 | 31 | 1015.3 |
| 20260507040237 | 63 | 249 | 11.0 | 18.0 | 0.00 | 0.00 | 0.00 | 31 | 1015.3 |
| 20260507040139 | 63 | 271 | 10.0 | 18.0 | 0.00 | 0.00 | 0.00 | 32 | 1015.4 |
| 20260507040049 | 63 | 252 | 11.0 | 18.0 | 0.00 | 0.00 | 0.00 | 31 | 1015.3 |
| 20260507040030 | 63 | 238 | 12.0 | 18.0 | 0.00 | 0.00 | 0.00 | 31 | 1015.1 |
| 20260507040003 | 63 | 208 | 12.0 | 18.0 | 0.00 | 0.00 | 0.00 | 30 | 1015.2 |
| 20260507035931 | 63 | 265 | 10.0 | 27.0 | 0.00 | 0.00 | 0.00 | 31 | 1015.3 |
| 20260507035637 | 63 | 250 | 10.0 | 27.0 | 0.00 | 0.00 | 0.00 | 30 | 1015.1 |
| 20260507035539 | 63 | 203 | 12.0 | 27.0 | 0.00 | 0.00 | 0.00 | 30 | 1015.3 |
| 20260507035439 | 63 | 253 | 12.0 | 27.0 | 0.00 | 0.00 | 0.00 | 30 | 1015.2 |
| 20260507035340 | 63 | 238 | 12.0 | 27.0 | 0.00 | 0.00 | 0.00 | 29 | 1015.1 |
| 20260507035237 | 63 | 238 | 12.0 | 27.0 | 0.00 | 0.00 | 0.00 | 29 | 1015.1 |
| 20260507035139 | 63 | 229 | 12.0 | 27.0 | 0.00 | 0.00 | 0.00 | 30 | 1015.1 |
| 20260507035057 | 63 | 279 | 12.0 | 27.0 | 0.00 | 0.00 | 0.00 | 30 | 1015.1 |
| 20260507035032 | 63 | 238 | 11.0 | 27.0 | 0.00 | 0.00 | 0.00 | 30 | 1015.2 |
| 20260507035004 | 63 | 162 | 11.0 | 27.0 | 0.00 | 0.00 | 0.00 | 29 | 1015.2 |
| 20260507034929 | 63 | 238 | 13.0 | 18.0 | 0.00 | 0.00 | 0.00 | 29 | 1015.3 |
| 20260507034636 | 63 | 251 | 13.0 | 18.0 | 0.00 | 0.00 | 0.00 | 29 | 1015.1 |
| 20260507034530 | 63 | 241 | 12.0 | 18.0 | 0.00 | 0.00 | 0.00 | 29 | 1015.1 |
| 20260507034432 | 63 | 243 | 11.0 | 18.0 | 0.00 | 0.00 | 0.00 | 29 | 1015.1 |
| 20260507034331 | 63 | 261 | 13.0 | 18.0 | 0.00 | 0.00 | 0.00 | 29 | 1015.2 |
| 20260507034229 | 64 | 236 | 11.0 | 18.0 | 0.00 | 0.00 | 0.00 | 30 | 1015.1 |
| 20260507034126 | 63 | 238 | 10.0 | 18.0 | 0.00 | 0.00 | 0.00 | 31 | 1015.0 |
| 20260507034023 | 63 | 259 | 9.0 | 18.0 | 0.00 | 0.00 | 0.00 | 31 | 1014.9 |
| 20260507033922 | 63 | 275 | 9.0 | 18.0 | 0.00 | 0.00 | 0.00 | 31 | 1015.1 |
| 20260507033820 | 63 | 232 | 12.0 | 18.0 | 0.00 | 0.00 | 0.00 | 30 | 1014.9 |
| 20260507033719 | 64 | 196 | 10.0 | 18.0 | 0.00 | 0.00 | 0.00 | 30 | 1015.0 |
| 20260507033615 | 64 | 259 | 9.0 | 18.0 | 0.00 | 0.00 | 0.00 | 30 | 1015.1 |
| 20260507033515 | 64 | 240 | 10.0 | 18.0 | 0.00 | 0.00 | 0.00 | 30 | 1014.9 |
| 20260507033411 | 64 | 261 | 10.0 | 18.0 | 0.00 | 0.00 | 0.00 | 30 | 1014.9 |
| 20260507033334 | 64 | 281 | 11.0 | 18.0 | 0.00 | 0.00 | 0.00 | 30 | 1015.0 |
| 20260507033111 | 64 | 244 | 9.0 | 18.0 | 0.00 | 0.00 | 0.00 | 29 | 1015.0 |
| 20260507033010 | 64 | 233 | 10.0 | 18.0 | 0.00 | 0.00 | 0.00 | 30 | 1015.0 |
| 20260507032813 | 64 | 263 | 10.0 | 18.0 | 0.00 | 0.00 | 0.00 | 30 | 1015.0 |
| 20260507032610 | 64 | 230 | 9.0 | 16.0 | 0.00 | 0.00 | 0.00 | 30 | 1015.0 |
| 20260507032509 | 64 | 234 | 10.0 | 15.0 | 0.00 | 0.00 | 0.00 | 30 | 1015.0 |
| 20260507032409 | 64 | 281 | 9.0 | 15.0 | 0.00 | 0.00 | 0.00 | 30 | 1015.0 |
| 20260507032311 | 64 | 267 | 9.0 | 15.0 | 0.00 | 0.00 | 0.00 | 30 | 1015.0 |
| 20260507032111 | 64 | 241 | 8.0 | 15.0 | 0.00 | 0.00 | 0.00 | 29 | 1014.9 |
| 20260507032009 | 64 | 238 | 8.0 | 18.0 | 0.00 | 0.00 | 0.00 | 29 | 1015.0 |
| 20260507031909 | 64 | 257 | 9.0 | 18.0 | 0.00 | 0.00 | 0.00 | 30 | 1015.0 |
| 20260507031813 | 64 | 268 | 8.0 | 18.0 | 0.00 | 0.00 | 0.00 | 29 | 1014.9 |
| 20260507031614 | 63 | 269 | 9.0 | 18.0 | 0.00 | 0.00 | 0.00 | 30 | 1015.1 |
| 20260507031542 | 63 | 256 | 10.0 | 18.0 | 0.00 | 0.00 | 0.00 | 29 | 1015.0 |
| 20260507031517 | 63 | 275 | 13.0 | 18.0 | 0.00 | 0.00 | 0.00 | 29 | 1015.0 |
| 20260507031453 | 63 | 269 | 14.0 | 20.0 | 0.00 | 0.00 | 0.00 | 29 | 1015.2 |
| 20260507031422 | 63 | 267 | 14.0 | 20.0 | 0.00 | 0.00 | 0.00 | 29 | 1015.2 |
| 20260507031110 | 63 | 255 | 13.0 | 20.0 | 0.00 | 0.00 | 0.00 | 28 | 1015.1 |
| 20260507031043 | 64 | 270 | 12.0 | 20.0 | 0.00 | 0.00 | 0.00 | 28 | 1015.0 |
| 20260507031019 | 64 | 239 | 12.0 | 20.0 | 0.00 | 0.00 | 0.00 | 29 | 1015.1 |
| 20260507030956 | 64 | 225 | 11.0 | 20.0 | 0.00 | 0.00 | 0.00 | 29 | 1015.1 |
| 20260507030922 | 64 | 273 | 11.0 | 20.0 | 0.00 | 0.00 | 0.00 | 28 | 1015.0 |
| 20260507030608 | 64 | 281 | 13.0 | 20.0 | 0.00 | 0.00 | 0.00 | 28 | 1015.1 |
| 20260507030508 | 64 | 279 | 12.0 | 20.0 | 0.00 | 0.00 | 0.00 | 28 | 1015.0 |
| 20260507030410 | 64 | 260 | 9.0 | 20.0 | 0.00 | 0.00 | 0.00 | 29 | 1015.1 |
| 20260507030318 | 64 | 217 | 12.0 | 19.0 | 0.00 | 0.00 | 0.00 | 29 | 1015.2 |
| 20260507030109 | 64 | 277 | 11.0 | 19.0 | 0.00 | 0.00 | 0.00 | 28 | 1014.9 |
| 20260507030009 | 64 | 311 | 10.0 | 18.0 | 0.00 | 0.00 | 0.00 | 28 | 1015.0 |
| 20260507025910 | 64 | 248 | 8.0 | 18.0 | 0.00 | 0.00 | 0.00 | 30 | 1015.0 |
| 20260507025811 | 64 | 247 | 9.0 | 14.0 | 0.00 | 0.00 | 0.00 | 31 | 1015.0 |
| 20260507025613 | 64 | 233 | 7.0 | 15.0 | 0.00 | 0.00 | 0.00 | 31 | 1015.0 |
| 20260507025550 | 64 | 248 | 5.0 | 15.0 | 0.00 | 0.00 | 0.00 | 32 | 1014.9 |
| 20260507025528 | 64 | 265 | 6.0 | 15.0 | 0.00 | 0.00 | 0.00 | 32 | 1015.0 |
| 20260507025500 | 64 | 260 | 7.0 | 20.0 | 0.00 | 0.00 | 0.00 | 32 | 1015.0 |
| 20260507025208 | 64 | 265 | 7.0 | 20.0 | 0.00 | 0.00 | 0.00 | 32 | 1015.0 |
| 20260507025106 | 64 | 226 | 8.0 | 20.0 | 0.00 | 0.00 | 0.00 | 31 | 1015.0 |
| 20260507025004 | 64 | 249 | 8.0 | 20.0 | 0.00 | 0.00 | 0.00 | 32 | 1014.9 |
| 20260507024903 | 64 | 257 | 8.0 | 20.0 | 0.00 | 0.00 | 0.00 | 31 | 1014.9 |
| 20260507024803 | 64 | 244 | 7.0 | 20.0 | 0.00 | 0.00 | 0.00 | 32 | 1014.9 |
| 20260507024701 | 63 | 269 | 8.0 | 20.0 | 0.00 | 0.00 | 0.00 | 32 | 1014.8 |
| 20260507024554 | 63 | 249 | 12.0 | 20.0 | 0.00 | 0.00 | 0.00 | 31 | 1014.8 |
| 20260507024451 | 64 | 264 | 12.0 | 20.0 | 0.00 | 0.00 | 0.00 | 31 | 1015.0 |
| 20260507024351 | 64 | 275 | 11.0 | 20.0 | 0.00 | 0.00 | 0.00 | 31 | 1014.9 |
| 20260507024250 | 64 | 244 | 11.0 | 17.0 | 0.00 | 0.00 | 0.00 | 31 | 1014.8 |
| 20260507024149 | 64 | 259 | 10.0 | 17.0 | 0.00 | 0.00 | 0.00 | 32 | 1014.9 |
| 20260507024046 | 64 | 265 | 9.0 | 17.0 | 0.00 | 0.00 | 0.00 | 32 | 1014.9 |
| 20260507023944 | 64 | 250 | 10.0 | 17.0 | 0.00 | 0.00 | 0.00 | 31 | 1014.9 |
| 20260507023843 | 64 | 240 | 10.0 | 18.0 | 0.00 | 0.00 | 0.00 | 31 | 1014.9 |
| 20260507023744 | 64 | 250 | 9.0 | 19.0 | 0.00 | 0.00 | 0.00 | 31 | 1014.9 |
| 20260507023644 | 64 | 220 | 8.0 | 24.0 | 0.00 | 0.00 | 0.00 | 31 | 1014.9 |
| 20260507023540 | 63 | 250 | 9.0 | 24.0 | 0.00 | 0.00 | 0.00 | 31 | 1015.0 |
| 20260507023438 | 63 | 253 | 10.0 | 24.0 | 0.00 | 0.00 | 0.00 | 30 | 1014.9 |
| 20260507023339 | 63 | 247 | 9.0 | 24.0 | 0.00 | 0.00 | 0.00 | 30 | 1014.9 |
| 20260507023243 | 63 | 271 | 8.0 | 24.0 | 0.00 | 0.00 | 0.00 | 31 | 1014.9 |
| 20260507023137 | 63 | 273 | 8.0 | 24.0 | 0.00 | 0.00 | 0.00 | 32 | 1015.0 |
| 20260507023042 | 63 | 246 | 11.0 | 24.0 | 0.00 | 0.00 | 0.00 | 33 | 1015.0 |
| 20260507022938 | 63 | 226 | 14.0 | 24.0 | 0.00 | 0.00 | 0.00 | 32 | 1015.1 |
| 20260507022837 | 63 | 267 | 15.0 | 24.0 | 0.00 | 0.00 | 0.00 | 32 | 1014.9 |
| 20260507022736 | 63 | 274 | 14.0 | 24.0 | 0.00 | 0.00 | 0.00 | 32 | 1014.9 |
| 20260507022637 | 63 | 263 | 14.0 | 19.0 | 0.00 | 0.00 | 0.00 | 32 | 1015.1 |
| 20260507022540 | 63 | 273 | 11.0 | 19.0 | 0.00 | 0.00 | 0.00 | 32 | 1015.0 |
| 20260507022440 | 63 | 249 | 8.0 | 19.0 | 0.00 | 0.00 | 0.00 | 33 | 1015.1 |
| 20260507022341 | 63 | 259 | 8.0 | 18.0 | 0.00 | 0.00 | 0.00 | 33 | 1015.0 |
| 20260507022238 | 63 | 244 | 9.0 | 18.0 | 0.00 | 0.00 | 0.00 | 33 | 1014.9 |
| 20260507022140 | 63 | 253 | 11.0 | 18.0 | 0.00 | 0.00 | 0.00 | 32 | 1015.0 |
| 20260507022036 | 63 | 262 | 12.0 | 18.0 | 0.00 | 0.00 | 0.00 | 32 | 1015.2 |
| 20260507021930 | 63 | 266 | 11.0 | 16.0 | 0.00 | 0.00 | 0.00 | 33 | 1015.1 |
| 20260507021833 | 63 | 247 | 9.0 | 17.0 | 0.00 | 0.00 | 0.00 | 33 | 1015.1 |
| 20260507021730 | 63 | 261 | 10.0 | 18.0 | 0.00 | 0.00 | 0.00 | 33 | 1015.2 |
| 20260507021630 | 63 | 312 | 11.0 | 24.0 | 0.00 | 0.00 | 0.00 | 32 | 1015.1 |
| 20260507021528 | 63 | 252 | 11.0 | 24.0 | 0.00 | 0.00 | 0.00 | 33 | 1015.0 |
| 20260507021422 | 63 | 289 | 8.0 | 24.0 | 0.00 | 0.00 | 0.00 | 33 | 1015.4 |
| 20260507021326 | 63 | 298 | 8.0 | 24.0 | 0.00 | 0.00 | 0.00 | 32 | 1015.3 |
| 20260507021221 | 63 | 264 | 12.0 | 25.0 | 0.00 | 0.00 | 0.00 | 32 | 1015.1 |
| 20260507021119 | 63 | 181 | 13.0 | 25.0 | 0.00 | 0.00 | 0.00 | 31 | 1015.2 |
| 20260507021016 | 63 | 266 | 13.0 | 25.0 | 0.00 | 0.00 | 0.00 | 31 | 1015.2 |
| 20260507020916 | 63 | 261 | 13.0 | 25.0 | 0.00 | 0.00 | 0.00 | 31 | 1015.1 |
| 20260507020820 | 63 | 248 | 13.0 | 25.0 | 0.00 | 0.00 | 0.00 | 31 | 1015.2 |
| 20260507020613 | 63 | 254 | 15.0 | 25.0 | 0.00 | 0.00 | 0.00 | 30 | 1015.0 |
| 20260507020512 | 63 | 257 | 15.0 | 25.0 | 0.00 | 0.00 | 0.00 | 30 | 1015.0 |
| 20260507020411 | 63 | 279 | 13.0 | 25.0 | 0.00 | 0.00 | 0.00 | 31 | 1015.1 |
| 20260507020323 | 63 | 273 | 13.0 | 24.0 | 0.00 | 0.00 | 0.00 | 31 | 1015.0 |
| 20260507020109 | 63 | 247 | 15.0 | 24.0 | 0.00 | 0.00 | 0.00 | 31 | 1015.1 |
| 20260507020011 | 63 | 247 | 15.0 | 24.0 | 0.00 | 0.00 | 0.00 | 30 | 1015.1 |
| 20260507015912 | 63 | 261 | 13.0 | 24.0 | 0.00 | 0.00 | 0.00 | 31 | 1015.0 |
| 20260507015814 | 63 | 263 | 11.0 | 25.0 | 0.00 | 0.00 | 0.00 | 31 | 1014.9 |
| 20260507015610 | 63 | 290 | 14.0 | 25.0 | 0.00 | 0.00 | 0.00 | 31 | 1015.0 |
| 20260507015509 | 63 | 263 | 15.0 | 25.0 | 0.00 | 0.00 | 0.00 | 31 | 1015.1 |
| 20260507015409 | 63 | 262 | 15.0 | 25.0 | 0.00 | 0.00 | 0.00 | 30 | 1015.0 |
| 20260507015312 | 63 | 240 | 15.0 | 25.0 | 0.00 | 0.00 | 0.00 | 31 | 1014.9 |
| 20260507015109 | 63 | 263 | 15.0 | 25.0 | 0.00 | 0.00 | 0.00 | 32 | 1015.0 |
| 20260507015010 | 63 | 239 | 13.0 | 25.0 | 0.00 | 0.00 | 0.00 | 33 | 1015.1 |
| 20260507014909 | 63 | 276 | 10.0 | 25.0 | 0.00 | 0.00 | 0.00 | 37 | 1015.1 |
| 20260507014822 | 63 | 273 | 8.0 | 16.0 | 0.00 | 0.00 | 0.00 | 39 | 1015.0 |
| 20260507014609 | 63 | 253 | 10.0 | 16.0 | 0.00 | 0.00 | 0.00 | 40 | 1015.1 |
| 20260507014510 | 63 | 236 | 8.0 | 16.0 | 0.00 | 0.00 | 0.00 | 42 | 1015.1 |
| 20260507014409 | 63 | 256 | 8.0 | 21.0 | 0.00 | 0.00 | 0.00 | 44 | 1015.1 |
| 20260507014311 | 63 | 263 | 9.0 | 21.0 | 0.00 | 0.00 | 0.00 | 44 | 1015.0 |
| 20260507014110 | 62 | 271 | 11.0 | 21.0 | 0.00 | 0.00 | 0.00 | 44 | 1015.2 |
| 20260507014008 | 62 | 272 | 9.0 | 21.0 | 0.00 | 0.00 | 0.00 | 45 | 1015.1 |
| 20260507013909 | 62 | 286 | 9.0 | 21.0 | 0.00 | 0.00 | 0.00 | 46 | 1015.0 |
| 20260507013825 | 62 | 244 | 10.0 | 21.0 | 0.00 | 0.00 | 0.00 | 46 | 1015.0 |
| 20260507013609 | 61 | 234 | 11.0 | 21.0 | 0.00 | 0.00 | 0.00 | 47 | 1015.1 |
| 20260507013511 | 61 | 272 | 9.0 | 21.0 | 0.00 | 0.00 | 0.00 | 49 | 1015.1 |
| 20260507013409 | 60 | 255 | 10.0 | 18.0 | 0.00 | 0.00 | 0.00 | 50 | 1015.1 |
| 20260507013313 | 60 | 244 | 13.0 | 18.0 | 0.00 | 0.00 | 0.00 | 50 | 1015.0 |
| 20260507013112 | 59 | 251 | 10.0 | 18.0 | 0.00 | 0.00 | 0.00 | 53 | 1015.0 |
| 20260507013010 | 59 | 212 | 8.0 | 13.0 | 0.00 | 0.00 | 0.00 | 54 | 1015.2 |
| 20260507012909 | 59 | 269 | 7.0 | 13.0 | 0.00 | 0.00 | 0.00 | 55 | 1015.3 |
| 20260507012811 | 59 | 243 | 8.0 | 15.0 | 0.00 | 0.00 | 0.00 | 55 | 1015.4 |
| 20260507012610 | 59 | 220 | 7.0 | 15.0 | 0.00 | 0.00 | 0.00 | 56 | 1015.4 |
| 20260507012509 | 59 | 217 | 8.0 | 15.0 | 0.00 | 0.00 | 0.00 | 56 | 1015.4 |
| 20260507012409 | 59 | 236 | 8.0 | 15.0 | 0.00 | 0.00 | 0.00 | 56 | 1015.4 |
| 20260507012310 | 59 | 258 | 7.0 | 15.0 | 0.00 | 0.00 | 0.00 | 56 | 1015.4 |
| 20260507012108 | 59 | 249 | 9.0 | 15.0 | 0.00 | 0.00 | 0.00 | 56 | 1015.5 |
| 20260507012010 | 59 | 263 | 11.0 | 15.0 | 0.00 | 0.00 | 0.00 | 56 | 1015.4 |
| 20260507011909 | 59 | 241 | 9.0 | 15.0 | 0.00 | 0.00 | 0.00 | 55 | 1015.4 |
| 20260507011814 | 59 | 254 | 7.0 | 14.0 | 0.00 | 0.00 | 0.00 | 55 | 1015.4 |
| 20260507011608 | 59 | 223 | 9.0 | 14.0 | 0.00 | 0.00 | 0.00 | 55 | 1015.4 |
| 20260507011511 | 59 | 320 | 9.0 | 14.0 | 0.00 | 0.00 | 0.00 | 56 | 1015.4 |
| 20260507011412 | 59 | 256 | 8.0 | 14.0 | 0.00 | 0.00 | 0.00 | 56 | 1015.4 |
| 20260507011304 | 59 | 236 | 8.0 | 18.0 | 0.00 | 0.00 | 0.00 | 56 | 1015.5 |
| 20260507011159 | 59 | 250 | 8.0 | 18.0 | 0.00 | 0.00 | 0.00 | 56 | 1015.5 |
| 20260507011101 | 59 | 229 | 9.0 | 18.0 | 0.00 | 0.00 | 0.00 | 56 | 1015.4 |
| 20260507010959 | 59 | 246 | 7.0 | 18.0 | 0.00 | 0.00 | 0.00 | 56 | 1015.5 |
| 20260507010857 | 59 | 215 | 8.0 | 18.0 | 0.00 | 0.00 | 0.00 | 56 | 1015.5 |
| 20260507010752 | 59 | 240 | 9.0 | 18.0 | 0.00 | 0.00 | 0.00 | 56 | 1015.4 |
| 20260507010649 | 60 | 232 | 8.0 | 18.0 | 0.00 | 0.00 | 0.00 | 56 | 1015.5 |
| 20260507010544 | 60 | 221 | 8.0 | 18.0 | 0.00 | 0.00 | 0.00 | 56 | 1015.4 |
| 20260507010437 | 60 | 244 | 8.0 | 18.0 | 0.00 | 0.00 | 0.00 | 56 | 1015.4 |
| 20260507010339 | 60 | 247 | 6.0 | 17.0 | 0.00 | 0.00 | 0.00 | 56 | 1015.4 |
| 20260507010238 | 60 | 244 | 6.0 | 18.0 | 0.00 | 0.00 | 0.00 | 56 | 1015.4 |
| 20260507010152 | 60 | 242 | 6.0 | 18.0 | 0.00 | 0.00 | 0.00 | 56 | 1015.4 |
| 20260507010038 | 60 | 256 | 8.0 | 18.0 | 0.00 | 0.00 | 0.00 | 55 | 1015.6 |
| 20260507005938 | 60 | 258 | 7.0 | 18.0 | 0.00 | 0.00 | 0.00 | 55 | 1015.5 |
| 20260507005838 | 61 | 243 | 7.0 | 18.0 | 0.00 | 0.00 | 0.00 | 54 | 1015.5 |
| 20260507005737 | 61 | 242 | 9.0 | 18.0 | 0.00 | 0.00 | 0.00 | 54 | 1015.5 |
| 20260507005638 | 61 | 200 | 10.0 | 18.0 | 0.00 | 0.00 | 0.00 | 54 | 1015.5 |
| 20260507005541 | 61 | 197 | 8.0 | 18.0 | 0.00 | 0.00 | 0.00 | 54 | 1015.4 |
| 20260507005441 | 62 | 219 | 8.0 | 18.0 | 0.00 | 0.00 | 0.00 | 53 | 1015.3 |
| 20260507005338 | 62 | 238 | 9.0 | 24.0 | 0.00 | 0.00 | 0.00 | 53 | 1015.4 |
| 20260507005237 | 62 | 211 | 8.0 | 24.0 | 0.00 | 0.00 | 0.00 | 53 | 1015.3 |
| 20260507005138 | 62 | 192 | 10.0 | 24.0 | 0.00 | 0.00 | 0.00 | 53 | 1015.2 |
| 20260507005037 | 63 | 234 | 10.0 | 24.0 | 0.00 | 0.00 | 0.00 | 53 | 1015.2 |
| 20260507004938 | 63 | 214 | 6.0 | 24.0 | 0.00 | 0.00 | 0.00 | 53 | 1015.2 |
| 20260507004741 | 63 | 205 | 6.0 | 24.0 | 0.00 | 0.00 | 0.00 | 53 | 1015.2 |
| 20260507004636 | 64 | 157 | 8.0 | 24.0 | 0.00 | 0.00 | 0.00 | 53 | 1015.3 |
| 20260507004542 | 64 | 231 | 13.0 | 24.0 | 0.00 | 0.00 | 0.00 | 53 | 1015.1 |
| 20260507004438 | 64 | 183 | 13.0 | 24.0 | 0.00 | 0.00 | 0.00 | 53 | 1015.0 |
| 20260507004341 | 64 | 248 | 7.0 | 18.0 | 0.00 | 0.00 | 0.00 | 55 | 1015.1 |
| 20260507004238 | 65 | 232 | 6.0 | 12.0 | 0.00 | 0.00 | 0.00 | 55 | 1015.0 |
| 20260507004139 | 65 | 273 | 6.0 | 12.0 | 0.00 | 0.00 | 0.00 | 55 | 1014.9 |
| 20260507004037 | 65 | 277 | 5.0 | 12.0 | 0.00 | 0.00 | 0.00 | 55 | 1014.7 |
| 20260507003936 | 65 | 281 | 3.0 | 10.0 | 0.00 | 0.00 | 0.00 | 55 | 1014.7 |
| 20260507003837 | 65 | 264 | 4.0 | 12.0 | 0.00 | 0.00 | 0.00 | 55 | 1014.8 |
| 20260507003737 | 65 | 230 | 4.0 | 12.0 | 0.00 | 0.00 | 0.00 | 54 | 1014.8 |
| 20260507003637 | 65 | 291 | 3.0 | 12.0 | 0.00 | 0.00 | 0.00 | 55 | 1014.7 |
| 20260507003539 | 65 | 221 | 3.0 | 12.0 | 0.00 | 0.00 | 0.00 | 54 | 1014.8 |
| 20260507003438 | 65 | 241 | 4.0 | 12.0 | 0.00 | 0.00 | 0.00 | 54 | 1014.7 |
| 20260507003337 | 65 | 229 | 6.0 | 12.0 | 0.00 | 0.00 | 0.00 | 54 | 1014.7 |
| 20260507003237 | 65 | 259 | 6.0 | 12.0 | 0.00 | 0.00 | 0.00 | 55 | 1014.8 |
| 20260507003142 | 65 | 238 | 5.0 | 12.0 | 0.00 | 0.00 | 0.00 | 55 | 1014.7 |
| 20260507003112 | 65 | 240 | 7.0 | 12.0 | 0.00 | 0.00 | 0.00 | 55 | 1014.8 |
| 20260507003022 | 65 | 230 | 7.0 | 12.0 | 0.00 | 0.00 | 0.00 | 57 | 1014.7 |
| 20260507002956 | 65 | 260 | 5.0 | 11.0 | 0.00 | 0.00 | 0.00 | 56 | 1014.6 |
| 20260507002931 | 65 | 295 | 4.0 | 11.0 | 0.00 | 0.00 | 0.00 | 57 | 1014.6 |
| 20260507002638 | 65 | 279 | 5.0 | 10.0 | 0.00 | 0.00 | 0.00 | 57 | 1014.7 |
| 20260507002539 | 65 | 288 | 5.0 | 12.0 | 0.00 | 0.00 | 0.00 | 56 | 1014.7 |
| 20260507002437 | 65 | 267 | 4.0 | 12.0 | 0.00 | 0.00 | 0.00 | 57 | 1014.6 |
| 20260507002337 | 65 | 249 | 4.0 | 12.0 | 0.00 | 0.00 | 0.00 | 57 | 1014.6 |
| 20260507002237 | 64 | 254 | 5.0 | 12.0 | 0.00 | 0.00 | 0.00 | 57 | 1014.6 |
| 20260507002141 | 64 | 252 | 5.0 | 12.0 | 0.00 | 0.00 | 0.00 | 58 | 1014.5 |
| 20260507002049 | 64 | 298 | 5.0 | 12.0 | 0.00 | 0.00 | 0.00 | 58 | 1014.6 |
| 20260507002024 | 64 | 250 | 6.0 | 12.0 | 0.00 | 0.00 | 0.00 | 58 | 1014.6 |
| 20260507001957 | 64 | 266 | 7.0 | 12.0 | 0.00 | 0.00 | 0.00 | 57 | 1014.6 |
| 20260507001932 | 64 | 298 | 6.0 | 12.0 | 0.00 | 0.00 | 0.00 | 57 | 1014.7 |
| 20260507001637 | 64 | 309 | 7.0 | 12.0 | 0.00 | 0.00 | 0.00 | 57 | 1014.6 |
| 20260507001540 | 64 | 298 | 7.0 | 12.0 | 0.00 | 0.00 | 0.00 | 57 | 1014.6 |
| 20260507001436 | 64 | 313 | 4.0 | 11.0 | 0.00 | 0.00 | 0.00 | 58 | 1014.6 |
| 20260507001336 | 64 | 254 | 4.0 | 12.0 | 0.00 | 0.00 | 0.00 | 59 | 1014.6 |
| 20260507001237 | 64 | 260 | 4.0 | 12.0 | 0.00 | 0.00 | 0.00 | 59 | 1014.6 |
| 20260507001137 | 63 | 282 | 3.0 | 12.0 | 0.00 | 0.00 | 0.00 | 59 | 1014.6 |
| 20260507001039 | 63 | 238 | 4.0 | 12.0 | 0.00 | 0.00 | 0.00 | 59 | 1014.6 |
| 20260507001016 | 63 | 284 | 6.0 | 12.0 | 0.00 | 0.00 | 0.00 | 58 | 1014.7 |
| 20260507000955 | 63 | 299 | 7.0 | 12.0 | 0.00 | 0.00 | 0.00 | 57 | 1014.7 |
| 20260507000929 | 63 | 314 | 8.0 | 12.0 | 0.00 | 0.00 | 0.00 | 58 | 1014.7 |
| 20260507000638 | 64 | 318 | 9.0 | 12.0 | 0.00 | 0.00 | 0.00 | 58 | 1014.7 |
| 20260507000538 | 63 | 292 | 7.0 | 12.0 | 0.00 | 0.00 | 0.00 | 58 | 1014.7 |
| 20260507000438 | 63 | 279 | 4.0 | 12.0 | 0.00 | 0.00 | 0.00 | 58 | 1014.8 |
| 20260507000336 | 63 | 257 | 3.0 | 10.0 | 0.00 | 0.00 | 0.00 | 58 | 1014.7 |
| 20260507000242 | 63 | 254 | 4.0 | 10.0 | 0.00 | 0.00 | 0.00 | 58 | 1014.8 |
| 20260507000139 | 63 | 286 | 6.0 | 10.0 | 0.00 | 0.00 | 0.00 | 58 | 1014.8 |
| 20260507000048 | 63 | 292 | 6.0 | 10.0 | 0.00 | 0.00 | 0.00 | 59 | 1014.8 |
| 20260507000023 | 63 | 295 | 4.0 | 10.0 | 0.00 | 0.00 | 0.00 | 59 | 1014.7 |
| 20260506235958 | 63 | 271 | 5.0 | 10.0 | 0.00 | 0.00 | 0.00 | 59 | 1014.9 |
| 20260506235928 | 63 | 276 | 6.0 | 10.0 | 0.00 | 0.00 | 0.00 | 59 | 1014.8 |
| 20260506235639 | 63 | 313 | 6.0 | 10.0 | 0.00 | 0.00 | 0.00 | 58 | 1014.8 |
| 20260506235546 | 63 | 305 | 6.0 | 10.0 | 0.00 | 0.00 | 0.00 | 58 | 1014.8 |
| 20260506235438 | 63 | 269 | 6.0 | 10.0 | 0.00 | 0.00 | 0.00 | 59 | 1014.8 |
| 20260506235337 | 62 | 279 | 5.0 | 10.0 | 0.00 | 0.00 | 0.00 | 59 | 1014.9 |
| 20260506235236 | 62 | 316 | 5.0 | 10.0 | 0.00 | 0.00 | 0.00 | 59 | 1014.9 |
| 20260506235140 | 62 | 308 | 6.0 | 11.0 | 0.00 | 0.00 | 0.00 | 59 | 1014.9 |
| 20260506235046 | 62 | 302 | 6.0 | 11.0 | 0.00 | 0.00 | 0.00 | 59 | 1014.9 |
| 20260506234936 | 62 | 263 | 6.0 | 11.0 | 0.00 | 0.00 | 0.00 | 58 | 1014.9 |
| 20260506234841 | 62 | 304 | 5.0 | 11.0 | 0.00 | 0.00 | 0.00 | 58 | 1014.9 |
| 20260506234810 | 63 | 309 | 5.0 | 11.0 | 0.00 | 0.00 | 0.00 | 58 | 1014.9 |
| 20260506234740 | 63 | 327 | 5.0 | 11.0 | 0.00 | 0.00 | 0.00 | 59 | 1014.8 |
| 20260506234721 | 63 | 268 | 4.0 | 11.0 | 0.00 | 0.00 | 0.00 | 59 | 1014.8 |
| 20260506234653 | 62 | 252 | 5.0 | 11.0 | 0.00 | 0.00 | 0.00 | 58 | 1014.9 |
| 20260506234625 | 62 | 270 | 7.0 | 11.0 | 0.00 | 0.00 | 0.00 | 58 | 1014.9 |
| 20260506234602 | 62 | 270 | 5.0 | 11.0 | 0.00 | 0.00 | 0.00 | 59 | 1014.9 |
| 20260506234325 | 62 | 286 | 3.0 | 11.0 | 0.00 | 0.00 | 0.00 | 59 | 1014.8 |
| 20260506234043 | 62 | 290 | 5.0 | 11.0 | 0.00 | 0.00 | 0.00 | 59 | 1014.8 |
| 20260506234018 | 62 | 299 | 5.0 | 11.0 | 0.00 | 0.00 | 0.00 | 59 | 1014.9 |
| 20260506233957 | 62 | 288 | 6.0 | 11.0 | 0.00 | 0.00 | 0.00 | 59 | 1014.9 |
| 20260506233928 | 62 | 239 | 7.0 | 11.0 | 0.00 | 0.00 | 0.00 | 58 | 1014.9 |
| 20260506233615 | 62 | 280 | 6.0 | 10.0 | 0.00 | 0.00 | 0.00 | 59 | 1014.8 |
| 20260506233534 | 62 | 280 | 6.0 | 10.0 | 0.00 | 0.00 | 0.00 | 60 | 1014.9 |
| 20260506233511 | 62 | 267 | 4.0 | 9.0 | 0.00 | 0.00 | 0.00 | 61 | 1014.9 |
| 20260506233447 | 62 | 273 | 5.0 | 9.0 | 0.00 | 0.00 | 0.00 | 61 | 1014.9 |
| 20260506233423 | 61 | 298 | 5.0 | 9.0 | 0.00 | 0.00 | 0.00 | 61 | 1014.8 |
| 20260506233113 | 61 | 282 | 5.0 | 9.0 | 0.00 | 0.00 | 0.00 | 60 | 1014.8 |
| 20260506233010 | 61 | 314 | 5.0 | 9.0 | 0.00 | 0.00 | 0.00 | 60 | 1014.8 |
| 20260506232925 | 61 | 276 | 4.0 | 9.0 | 0.00 | 0.00 | 0.00 | 61 | 1014.7 |
| 20260506232812 | 61 | 301 | 4.0 | 10.0 | 0.00 | 0.00 | 0.00 | 61 | 1014.8 |
| 20260506232608 | 61 | 308 | 6.0 | 10.0 | 0.00 | 0.00 | 0.00 | 60 | 1014.9 |
| 20260506232510 | 61 | 299 | 6.0 | 10.0 | 0.00 | 0.00 | 0.00 | 60 | 1014.9 |
| 20260506232410 | 61 | 306 | 6.0 | 10.0 | 0.00 | 0.00 | 0.00 | 60 | 1014.8 |
| 20260506232326 | 61 | 313 | 4.0 | 10.0 | 0.00 | 0.00 | 0.00 | 60 | 1014.8 |
| 20260506232108 | 61 | 294 | 5.0 | 10.0 | 0.00 | 0.00 | 0.00 | 61 | 1014.8 |
| 20260506232011 | 61 | 290 | 6.0 | 10.0 | 0.00 | 0.00 | 0.00 | 60 | 1014.8 |
| 20260506231914 | 61 | 310 | 7.0 | 10.0 | 0.00 | 0.00 | 0.00 | 60 | 1014.8 |
| 20260506231810 | 61 | 279 | 6.0 | 10.0 | 0.00 | 0.00 | 0.00 | 60 | 1014.9 |
| 20260506231610 | 61 | 309 | 5.0 | 12.0 | 0.00 | 0.00 | 0.00 | 61 | 1014.9 |
| 20260506231520 | 61 | 265 | 6.0 | 12.0 | 0.00 | 0.00 | 0.00 | 61 | 1014.9 |
| 20260506231412 | 61 | 290 | 6.0 | 12.0 | 0.00 | 0.00 | 0.00 | 62 | 1014.9 |
| 20260506231317 | 61 | 282 | 6.0 | 12.0 | 0.00 | 0.00 | 0.00 | 62 | 1014.9 |
| 20260506231113 | 61 | 325 | 7.0 | 12.0 | 0.00 | 0.00 | 0.00 | 61 | 1014.9 |
| 20260506231014 | 61 | 281 | 7.0 | 12.0 | 0.00 | 0.00 | 0.00 | 61 | 1014.9 |
| 20260506230813 | 61 | 296 | 6.0 | 12.0 | 0.00 | 0.00 | 0.00 | 62 | 1014.9 |
| 20260506230612 | 61 | 323 | 6.0 | 9.0 | 0.00 | 0.00 | 0.00 | 62 | 1014.9 |
| 20260506230528 | 61 | 321 | 5.0 | 9.0 | 0.00 | 0.00 | 0.00 | 62 | 1014.9 |
| 20260506230410 | 61 | 323 | 6.0 | 9.0 | 0.00 | 0.00 | 0.00 | 62 | 1014.9 |
| 20260506230311 | 61 | 309 | 7.0 | 9.0 | 0.00 | 0.00 | 0.00 | 63 | 1015.0 |
| 20260506230111 | 61 | 277 | 2.0 | 9.0 | 0.00 | 0.00 | 0.00 | 64 | 1014.9 |
| 20260506230012 | 60 | 267 | 3.0 | 8.0 | 0.00 | 0.00 | 0.00 | 64 | 1014.9 |
| 20260506225916 | 60 | 334 | 3.0 | 8.0 | 0.00 | 0.00 | 0.00 | 64 | 1014.9 |
| 20260506225820 | 60 | 275 | 3.0 | 8.0 | 0.00 | 0.00 | 0.00 | 64 | 1014.9 |
| 20260506225609 | 60 | 313 | 3.0 | 8.0 | 0.00 | 0.00 | 0.00 | 65 | 1014.9 |
| 20260506225511 | 60 | 273 | 4.0 | 8.0 | 0.00 | 0.00 | 0.00 | 65 | 1015.0 |
| 20260506225411 | 60 | 263 | 3.0 | 8.0 | 0.00 | 0.00 | 0.00 | 65 | 1015.0 |
| 20260506225310 | 60 | 271 | 4.0 | 8.0 | 0.00 | 0.00 | 0.00 | 66 | 1014.9 |
| 20260506225108 | 59 | 313 | 4.0 | 9.0 | 0.00 | 0.00 | 0.00 | 66 | 1015.0 |
| 20260506225011 | 59 | 290 | 6.0 | 9.0 | 0.00 | 0.00 | 0.00 | 65 | 1014.9 |
| 20260506224908 | 59 | 311 | 5.0 | 9.0 | 0.00 | 0.00 | 0.00 | 65 | 1014.9 |
| 20260506224811 | 59 | 308 | 3.0 | 9.0 | 0.00 | 0.00 | 0.00 | 66 | 1014.9 |
| 20260506224612 | 59 | 312 | 3.0 | 9.0 | 0.00 | 0.00 | 0.00 | 66 | 1014.9 |
| 20260506224508 | 59 | 351 | 4.0 | 9.0 | 0.00 | 0.00 | 0.00 | 67 | 1015.0 |
| 20260506224410 | 59 | 277 | 4.0 | 9.0 | 0.00 | 0.00 | 0.00 | 67 | 1014.9 |
| 20260506224314 | 59 | 279 | 3.0 | 9.0 | 0.00 | 0.00 | 0.00 | 67 | 1014.9 |
| 20260506224110 | 59 | 303 | 4.0 | 9.0 | 0.00 | 0.00 | 0.00 | 67 | 1014.9 |
| 20260506224009 | 59 | 295 | 4.0 | 9.0 | 0.00 | 0.00 | 0.00 | 68 | 1015.0 |
| 20260506223910 | 58 | 288 | 4.0 | 9.0 | 0.00 | 0.00 | 0.00 | 67 | 1015.0 |
| 20260506223812 | 58 | 329 | 5.0 | 9.0 | 0.00 | 0.00 | 0.00 | 68 | 1014.9 |
| 20260506223615 | 58 | 288 | 4.0 | 9.0 | 0.00 | 0.00 | 0.00 | 68 | 1014.9 |
| 20260506223511 | 58 | 340 | 3.0 | 8.0 | 0.00 | 0.00 | 0.00 | 68 | 1014.9 |
| 20260506223411 | 58 | 305 | 4.0 | 7.0 | 0.00 | 0.00 | 0.00 | 68 | 1014.9 |
| 20260506223310 | 58 | 305 | 4.0 | 8.0 | 0.00 | 0.00 | 0.00 | 69 | 1015.0 |
| 20260506223111 | 58 | 309 | 3.0 | 8.0 | 0.00 | 0.00 | 0.00 | 69 | 1014.9 |
| 20260506223009 | 58 | 313 | 3.0 | 8.0 | 0.00 | 0.00 | 0.00 | 70 | 1015.0 |
| 20260506222912 | 58 | 287 | 4.0 | 8.0 | 0.00 | 0.00 | 0.00 | 69 | 1014.8 |
| 20260506222811 | 58 | 292 | 4.0 | 8.0 | 0.00 | 0.00 | 0.00 | 70 | 1015.0 |
| 20260506222609 | 57 | 304 | 4.0 | 8.0 | 0.00 | 0.00 | 0.00 | 70 | 1015.0 |
| 20260506222510 | 57 | 323 | 4.0 | 8.0 | 0.00 | 0.00 | 0.00 | 70 | 1015.0 |
| 20260506222411 | 57 | 306 | 4.0 | 8.0 | 0.00 | 0.00 | 0.00 | 71 | 1014.9 |
| 20260506222315 | 57 | 352 | 3.0 | 7.0 | 0.00 | 0.00 | 0.00 | 71 | 1014.9 |
| 20260506222111 | 57 | 315 | 4.0 | 7.0 | 0.00 | 0.00 | 0.00 | 72 | 1014.9 |
| 20260506222009 | 57 | 271 | 4.0 | 7.0 | 0.00 | 0.00 | 0.00 | 71 | 1014.9 |
| 20260506221909 | 57 | 323 | 4.0 | 6.0 | 0.00 | 0.00 | 0.00 | 71 | 1014.9 |
| 20260506221808 | 56 | 308 | 4.0 | 6.0 | 0.00 | 0.00 | 0.00 | 72 | 1014.9 |
| 20260506221705 | 56 | 312 | 4.0 | 6.0 | 0.00 | 0.00 | 0.00 | 72 | 1015.0 |
| 20260506221606 | 56 | 334 | 3.0 | 6.0 | 0.00 | 0.00 | 0.00 | 73 | 1014.9 |
| 20260506221501 | 56 | 299 | 4.0 | 6.0 | 0.00 | 0.00 | 0.00 | 73 | 1014.9 |
| 20260506221357 | 56 | 296 | 3.0 | 6.0 | 0.00 | 0.00 | 0.00 | 74 | 1014.8 |
| 20260506221255 | 56 | 296 | 2.0 | 6.0 | 0.00 | 0.00 | 0.00 | 74 | 1014.9 |
| 20260506221154 | 56 | 304 | 2.0 | 6.0 | 0.00 | 0.00 | 0.00 | 74 | 1015.0 |
| 20260506221050 | 56 | 295 | 3.0 | 6.0 | 0.00 | 0.00 | 0.00 | 74 | 1014.9 |
| 20260506221027 | 56 | 284 | 3.0 | 6.0 | 0.00 | 0.00 | 0.00 | 74 | 1014.9 |
| 20260506220957 | 56 | 311 | 3.0 | 6.0 | 0.00 | 0.00 | 0.00 | 75 | 1014.9 |
| 20260506220933 | 55 | 317 | 3.0 | 6.0 | 0.00 | 0.00 | 0.00 | 76 | 1014.9 |
| 20260506220641 | 55 | 301 | 2.0 | 6.0 | 0.00 | 0.00 | 0.00 | 76 | 1014.8 |
| 20260506220559 | 55 | 303 | 2.0 | 6.0 | 0.00 | 0.00 | 0.00 | 77 | 1014.8 |
| 20260506220439 | 55 | 301 | 3.0 | 6.0 | 0.00 | 0.00 | 0.00 | 77 | 1014.8 |
| 20260506220337 | 55 | 302 | 3.0 | 6.0 | 0.00 | 0.00 | 0.00 | 78 | 1014.8 |
| 20260506220239 | 55 | 276 | 2.0 | 6.0 | 0.00 | 0.00 | 0.00 | 78 | 1014.9 |
| 20260506220138 | 54 | 281 | 2.0 | 6.0 | 0.00 | 0.00 | 0.00 | 78 | 1014.8 |
| 20260506220039 | 54 | 304 | 2.0 | 4.0 | 0.00 | 0.00 | 0.00 | 79 | 1014.9 |
| 20260506215939 | 54 | 295 | 2.0 | 6.0 | 0.00 | 0.00 | 0.00 | 79 | 1014.8 |
| 20260506215844 | 54 | 304 | 2.0 | 6.0 | 0.00 | 0.00 | 0.00 | 79 | 1014.8 |
| 20260506215739 | 54 | 288 | 2.0 | 6.0 | 0.00 | 0.00 | 0.00 | 80 | 1014.8 |
| 20260506215640 | 53 | 314 | 2.0 | 6.0 | 0.00 | 0.00 | 0.00 | 80 | 1014.8 |
| 20260506215539 | 53 | 315 | 2.0 | 6.0 | 0.00 | 0.00 | 0.00 | 80 | 1014.8 |
| 20260506215440 | 53 | 291 | 2.0 | 6.0 | 0.00 | 0.00 | 0.00 | 80 | 1014.9 |
| 20260506215337 | 53 | 276 | 2.0 | 6.0 | 0.00 | 0.00 | 0.00 | 80 | 1014.7 |
| 20260506215238 | 53 | 290 | 3.0 | 6.0 | 0.00 | 0.00 | 0.00 | 80 | 1014.7 |
| 20260506215137 | 53 | 306 | 3.0 | 6.0 | 0.00 | 0.00 | 0.00 | 81 | 1014.7 |
| 20260506215055 | 53 | 294 | 3.0 | 6.0 | 0.00 | 0.00 | 0.00 | 81 | 1014.8 |
| 20260506215030 | 53 | 323 | 2.0 | 6.0 | 0.00 | 0.00 | 0.00 | 81 | 1014.8 |
| 20260506214957 | 53 | 314 | 2.0 | 7.0 | 0.00 | 0.00 | 0.00 | 81 | 1014.8 |
| 20260506214930 | 53 | 290 | 2.0 | 7.0 | 0.00 | 0.00 | 0.00 | 81 | 1014.8 |
| 20260506214639 | 53 | 301 | 3.0 | 7.0 | 0.00 | 0.00 | 0.00 | 81 | 1014.7 |
| 20260506214543 | 52 | 332 | 3.0 | 7.0 | 0.00 | 0.00 | 0.00 | 82 | 1014.7 |
| 20260506214438 | 52 | 276 | 2.0 | 7.0 | 0.00 | 0.00 | 0.00 | 82 | 1014.7 |
| 20260506214337 | 52 | 299 | 2.0 | 7.0 | 0.00 | 0.00 | 0.00 | 82 | 1014.8 |
| 20260506214236 | 52 | 285 | 2.0 | 7.0 | 0.00 | 0.00 | 0.00 | 82 | 1014.7 |
| 20260506214140 | 52 | 290 | 4.0 | 7.0 | 0.00 | 0.00 | 0.00 | 82 | 1014.8 |
| 20260506214025 | 52 | 280 | 4.0 | 7.0 | 0.00 | 0.00 | 0.00 | 82 | 1014.7 |
| 20260506213919 | 52 | 289 | 4.0 | 6.0 | 0.00 | 0.00 | 0.00 | 83 | 1014.7 |
| 20260506213817 | 52 | 317 | 4.0 | 6.0 | 0.00 | 0.00 | 0.00 | 83 | 1014.8 |
| 20260506213613 | 51 | 286 | 2.0 | 6.0 | 0.00 | 0.00 | 0.00 | 83 | 1014.7 |
| 20260506213535 | 51 | 309 | 3.0 | 6.0 | 0.00 | 0.00 | 0.00 | 83 | 1014.6 |
| 20260506213516 | 51 | 282 | 3.0 | 6.0 | 0.00 | 0.00 | 0.00 | 83 | 1014.7 |
| 20260506213448 | 51 | 294 | 3.0 | 6.0 | 0.00 | 0.00 | 0.00 | 83 | 1014.8 |
| 20260506213423 | 51 | 306 | 2.0 | 6.0 | 0.00 | 0.00 | 0.00 | 84 | 1014.7 |
| 20260506213112 | 51 | 299 | 2.0 | 6.0 | 0.00 | 0.00 | 0.00 | 84 | 1014.7 |
| 20260506213015 | 51 | 295 | 2.0 | 6.0 | 0.00 | 0.00 | 0.00 | 84 | 1014.7 |
| 20260506212910 | 51 | 282 | 2.0 | 6.0 | 0.00 | 0.00 | 0.00 | 84 | 1014.6 |
| 20260506212818 | 51 | 287 | 2.0 | 6.0 | 0.00 | 0.00 | 0.00 | 84 | 1014.6 |
| 20260506212612 | 51 | 310 | 2.0 | 5.0 | 0.00 | 0.00 | 0.00 | 84 | 1014.5 |
| 20260506212507 | 51 | 279 | 3.0 | 5.0 | 0.00 | 0.00 | 0.00 | 84 | 1014.6 |
| 20260506212405 | 51 | 286 | 3.0 | 5.0 | 0.00 | 0.00 | 0.00 | 85 | 1014.5 |
| 20260506212306 | 51 | 290 | 3.0 | 5.0 | 0.00 | 0.00 | 0.00 | 85 | 1014.5 |
| 20260506212205 | 50 | 307 | 3.0 | 5.0 | 0.00 | 0.00 | 0.00 | 85 | 1014.5 |
| 20260506212101 | 50 | 327 | 3.0 | 5.0 | 0.00 | 0.00 | 0.00 | 85 | 1014.6 |
| 20260506211958 | 50 | 296 | 3.0 | 5.0 | 0.00 | 0.00 | 0.00 | 85 | 1014.5 |
| 20260506211900 | 50 | 315 | 3.0 | 5.0 | 0.00 | 0.00 | 0.00 | 85 | 1014.6 |
| 20260506211757 | 50 | 302 | 2.0 | 5.0 | 0.00 | 0.00 | 0.00 | 85 | 1014.5 |
| 20260506211656 | 50 | 296 | 2.0 | 5.0 | 0.00 | 0.00 | 0.00 | 85 | 1014.5 |
| 20260506211554 | 50 | 333 | 2.0 | 5.0 | 0.00 | 0.00 | 0.00 | 85 | 1014.4 |
| 20260506211455 | 50 | 315 | 3.0 | 5.0 | 0.00 | 0.00 | 0.00 | 86 | 1014.5 |
| 20260506211357 | 50 | 320 | 3.0 | 5.0 | 0.00 | 0.00 | 0.00 | 86 | 1014.5 |
| 20260506211253 | 50 | 300 | 2.0 | 5.0 | 0.00 | 0.00 | 0.00 | 86 | 1014.6 |
| 20260506211150 | 50 | 289 | 1.0 | 4.0 | 0.00 | 0.00 | 0.00 | 86 | 1014.4 |
| 20260506211048 | 50 | 286 | 1.0 | 4.0 | 0.00 | 0.00 | 0.00 | 86 | 1014.5 |
| 20260506210946 | 50 | 284 | 2.0 | 4.0 | 0.00 | 0.00 | 0.00 | 86 | 1014.4 |
| 20260506210852 | 50 | 279 | 2.0 | 4.0 | 0.00 | 0.00 | 0.00 | 86 | 1014.5 |
| 20260506210743 | 50 | 279 | 2.0 | 4.0 | 0.00 | 0.00 | 0.00 | 86 | 1014.4 |
| 20260506210645 | 50 | 281 | 2.0 | 4.0 | 0.00 | 0.00 | 0.00 | 86 | 1014.6 |
| 20260506210538 | 50 | 288 | 2.0 | 4.0 | 0.00 | 0.00 | 0.00 | 86 | 1014.6 |
| 20260506210437 | 50 | 278 | 2.0 | 4.0 | 0.00 | 0.00 | 0.00 | 86 | 1014.6 |
| 20260506210342 | 50 | 290 | 2.0 | 4.0 | 0.00 | 0.00 | 0.00 | 86 | 1014.6 |
| 20260506210238 | 50 | 294 | 2.0 | 4.0 | 0.00 | 0.00 | 0.00 | 86 | 1014.5 |
| 20260506210138 | 50 | 300 | 2.0 | 4.0 | 0.00 | 0.00 | 0.00 | 86 | 1014.5 |
| 20260506210040 | 50 | 290 | 2.0 | 4.0 | 0.00 | 0.00 | 0.00 | 86 | 1014.4 |
| 20260506205939 | 50 | 304 | 2.0 | 4.0 | 0.00 | 0.00 | 0.00 | 86 | 1014.5 |
| 20260506205844 | 50 | 288 | 3.0 | 4.0 | 0.00 | 0.00 | 0.00 | 86 | 1014.5 |
| 20260506205739 | 50 | 298 | 3.0 | 4.0 | 0.00 | 0.00 | 0.00 | 86 | 1014.5 |
| 20260506205638 | 50 | 290 | 3.0 | 4.0 | 0.00 | 0.00 | 0.00 | 86 | 1014.4 |
| 20260506205539 | 50 | 289 | 2.0 | 4.0 | 0.00 | 0.00 | 0.00 | 87 | 1014.5 |
| 20260506205439 | 50 | 288 | 2.0 | 4.0 | 0.00 | 0.00 | 0.00 | 87 | 1014.5 |
| 20260506205341 | 50 | 277 | 2.0 | 4.0 | 0.00 | 0.00 | 0.00 | 87 | 1014.5 |
| 20260506205237 | 50 | 273 | 2.0 | 4.0 | 0.00 | 0.00 | 0.00 | 87 | 1014.4 |
| 20260506205137 | 50 | 274 | 2.0 | 4.0 | 0.00 | 0.00 | 0.00 | 87 | 1014.4 |
| 20260506205051 | 50 | 277 | 2.0 | 4.0 | 0.00 | 0.00 | 0.00 | 87 | 1014.5 |
| 20260506205028 | 50 | 296 | 2.0 | 4.0 | 0.00 | 0.00 | 0.00 | 87 | 1014.4 |
| 20260506205009 | 50 | 299 | 3.0 | 4.0 | 0.00 | 0.00 | 0.00 | 87 | 1014.4 |
| 20260506204930 | 50 | 294 | 2.0 | 4.0 | 0.00 | 0.00 | 0.00 | 87 | 1014.5 |
| 20260506204637 | 50 | 284 | 2.0 | 4.0 | 0.00 | 0.00 | 0.00 | 87 | 1014.4 |
| 20260506204538 | 50 | 293 | 1.0 | 3.0 | 0.00 | 0.00 | 0.00 | 87 | 1014.3 |
| 20260506204436 | 50 | 290 | 2.0 | 3.0 | 0.00 | 0.00 | 0.00 | 87 | 1014.4 |
| 20260506204341 | 50 | 290 | 2.0 | 3.0 | 0.00 | 0.00 | 0.00 | 87 | 1014.4 |
| 20260506204237 | 50 | 290 | 2.0 | 3.0 | 0.00 | 0.00 | 0.00 | 87 | 1014.4 |
| 20260506204136 | 50 | 303 | 2.0 | 3.0 | 0.00 | 0.00 | 0.00 | 87 | 1014.4 |
| 20260506204028 | 50 | 300 | 2.0 | 3.0 | 0.00 | 0.00 | 0.00 | 88 | 1014.4 |
| 20260506203929 | 50 | 297 | 2.0 | 3.0 | 0.00 | 0.00 | 0.00 | 88 | 1014.3 |
| 20260506203835 | 50 | 281 | 2.0 | 4.0 | 0.00 | 0.00 | 0.00 | 88 | 1014.3 |
| 20260506203722 | 50 | 290 | 1.0 | 5.0 | 0.00 | 0.00 | 0.00 | 88 | 1014.3 |
| 20260506203619 | 50 | 302 | 0.0 | 5.0 | 0.00 | 0.00 | 0.00 | 88 | 1014.3 |
| 20260506203520 | 50 | 297 | 0.0 | 5.0 | 0.00 | 0.00 | 0.00 | 88 | 1014.3 |
| 20260506203417 | 50 | 273 | 0.0 | 5.0 | 0.00 | 0.00 | 0.00 | 88 | 1014.4 |
| 20260506203314 | 50 | 273 | 0.0 | 5.0 | 0.00 | 0.00 | 0.00 | 88 | 1014.3 |
| 20260506203115 | 50 | 273 | 2.0 | 5.0 | 0.00 | 0.00 | 0.00 | 88 | 1014.3 |
| 20260506203010 | 50 | 284 | 3.0 | 5.0 | 0.00 | 0.00 | 0.00 | 88 | 1014.3 |
| 20260506202910 | 50 | 309 | 3.0 | 5.0 | 0.00 | 0.00 | 0.00 | 88 | 1014.4 |
| 20260506202811 | 50 | 308 | 3.0 | 5.0 | 0.00 | 0.00 | 0.00 | 88 | 1014.4 |
| 20260506202613 | 50 | 304 | 2.0 | 4.0 | 0.00 | 0.00 | 0.00 | 89 | 1014.4 |
| 20260506202509 | 50 | 271 | 1.0 | 4.0 | 0.00 | 0.00 | 0.00 | 88 | 1014.3 |
| 20260506202407 | 50 | 286 | 1.0 | 4.0 | 0.00 | 0.00 | 0.00 | 89 | 1014.3 |
| 20260506202306 | 50 | 296 | 1.0 | 4.0 | 0.00 | 0.00 | 0.00 | 89 | 1014.3 |
| 20260506202203 | 50 | 304 | 1.0 | 4.0 | 0.00 | 0.00 | 0.00 | 89 | 1014.3 |
| 20260506202105 | 50 | 305 | 2.0 | 4.0 | 0.00 | 0.00 | 0.00 | 89 | 1014.2 |
| 20260506202035 | 50 | 297 | 2.0 | 4.0 | 0.00 | 0.00 | 0.00 | 89 | 1014.3 |
| 20260506202013 | 50 | 308 | 2.0 | 4.0 | 0.00 | 0.00 | 0.00 | 89 | 1014.3 |
| 20260506201940 | 50 | 313 | 2.0 | 4.0 | 0.00 | 0.00 | 0.00 | 89 | 1014.3 |
| 20260506201701 | 50 | 301 | 2.0 | 4.0 | 0.00 | 0.00 | 0.00 | 89 | 1014.3 |
| 20260506201558 | 50 | 298 | 3.0 | 4.0 | 0.00 | 0.00 | 0.00 | 89 | 1014.3 |
| 20260506201456 | 50 | 296 | 2.0 | 4.0 | 0.00 | 0.00 | 0.00 | 89 | 1014.3 |
| 20260506201356 | 50 | 297 | 2.0 | 4.0 | 0.00 | 0.00 | 0.00 | 89 | 1014.3 |
| 20260506201250 | 50 | 313 | 2.0 | 6.0 | 0.00 | 0.00 | 0.00 | 89 | 1014.4 |
| 20260506201152 | 50 | 292 | 2.0 | 6.0 | 0.00 | 0.00 | 0.00 | 89 | 1014.4 |
| 20260506201047 | 50 | 279 | 1.0 | 6.0 | 0.00 | 0.00 | 0.00 | 89 | 1014.3 |
| 20260506200945 | 50 | 287 | 0.0 | 6.0 | 0.00 | 0.00 | 0.00 | 89 | 1014.3 |
| 20260506200841 | 50 | 287 | 1.0 | 6.0 | 0.00 | 0.00 | 0.00 | 89 | 1014.3 |
| 20260506200743 | 50 | 302 | 2.0 | 6.0 | 0.00 | 0.00 | 0.00 | 89 | 1014.4 |
| 20260506200640 | 50 | 278 | 1.0 | 6.0 | 0.00 | 0.00 | 0.00 | 89 | 1014.3 |
| 20260506200542 | 50 | 284 | 3.0 | 6.0 | 0.00 | 0.00 | 0.00 | 89 | 1014.4 |
| 20260506200438 | 50 | 260 | 2.0 | 6.0 | 0.00 | 0.00 | 0.00 | 89 | 1014.4 |
| 20260506200339 | 50 | 271 | 0.0 | 4.0 | 0.00 | 0.00 | 0.00 | 89 | 1014.3 |
| 20260506200239 | 50 | 281 | 0.0 | 4.0 | 0.00 | 0.00 | 0.00 | 89 | 1014.3 |
| 20260506200137 | 50 | 281 | 0.0 | 4.0 | 0.00 | 0.00 | 0.00 | 90 | 1014.4 |
| 20260506200039 | 50 | 281 | 0.0 | 4.0 | 0.00 | 0.00 | 0.00 | 89 | 1014.4 |
| 20260506195939 | 50 | 281 | 1.0 | 4.0 | 0.00 | 0.00 | 0.00 | 89 | 1014.4 |
| 20260506195838 | 50 | 281 | 1.0 | 4.0 | 0.00 | 0.00 | 0.00 | 90 | 1014.4 |
| 20260506195738 | 50 | 281 | 2.0 | 4.0 | 0.00 | 0.00 | 0.00 | 90 | 1014.3 |
| 20260506195637 | 50 | 280 | 2.0 | 4.0 | 0.00 | 0.00 | 0.00 | 89 | 1014.4 |
| 20260506195539 | 50 | 296 | 2.0 | 4.0 | 0.00 | 0.00 | 0.00 | 89 | 1014.4 |
| 20260506195437 | 50 | 296 | 2.0 | 3.0 | 0.00 | 0.00 | 0.00 | 89 | 1014.4 |
| 20260506195339 | 50 | 281 | 2.0 | 3.0 | 0.00 | 0.00 | 0.00 | 89 | 1014.5 |
| 20260506195237 | 50 | 274 | 2.0 | 3.0 | 0.00 | 0.00 | 0.00 | 89 | 1014.6 |
| 20260506195137 | 50 | 271 | 2.0 | 3.0 | 0.00 | 0.00 | 0.00 | 89 | 1014.5 |
| 20260506195037 | 50 | 279 | 2.0 | 3.0 | 0.00 | 0.00 | 0.00 | 89 | 1014.6 |
| 20260506194942 | 50 | 272 | 2.0 | 3.0 | 0.00 | 0.00 | 0.00 | 89 | 1014.6 |
| 20260506194830 | 50 | 279 | 2.0 | 3.0 | 0.00 | 0.00 | 0.00 | 89 | 1014.6 |
| 20260506194728 | 50 | 271 | 2.0 | 3.0 | 0.00 | 0.00 | 0.00 | 89 | 1014.6 |
| 20260506194630 | 50 | 271 | 2.0 | 3.0 | 0.00 | 0.00 | 0.00 | 89 | 1014.6 |
| 20260506194527 | 50 | 271 | 2.0 | 3.0 | 0.00 | 0.00 | 0.00 | 89 | 1014.7 |
| 20260506194427 | 50 | 274 | 1.0 | 3.0 | 0.00 | 0.00 | 0.00 | 89 | 1014.6 |
| 20260506194326 | 50 | 271 | 1.0 | 3.0 | 0.00 | 0.00 | 0.00 | 90 | 1014.7 |
| 20260506194227 | 50 | 265 | 1.0 | 3.0 | 0.00 | 0.00 | 0.00 | 90 | 1014.7 |
| 20260506194125 | 50 | 266 | 2.0 | 3.0 | 0.00 | 0.00 | 0.00 | 90 | 1014.7 |
| 20260506194024 | 50 | 271 | 2.0 | 3.0 | 0.00 | 0.00 | 0.00 | 90 | 1014.6 |
| 20260506193921 | 50 | 265 | 2.0 | 3.0 | 0.00 | 0.00 | 0.00 | 90 | 1014.6 |
| 20260506193818 | 50 | 264 | 2.0 | 3.0 | 0.00 | 0.00 | 0.00 | 90 | 1014.6 |
| 20260506193716 | 50 | 273 | 2.0 | 3.0 | 0.00 | 0.00 | 0.00 | 90 | 1014.6 |
| 20260506193613 | 50 | 262 | 2.0 | 3.0 | 0.00 | 0.00 | 0.00 | 90 | 1014.6 |
| 20260506193512 | 50 | 262 | 2.0 | 3.0 | 0.00 | 0.00 | 0.00 | 90 | 1014.6 |
| 20260506193410 | 50 | 234 | 2.0 | 3.0 | 0.00 | 0.00 | 0.00 | 90 | 1014.5 |
| 20260506193312 | 50 | 245 | 2.0 | 3.0 | 0.00 | 0.00 | 0.00 | 90 | 1014.5 |
| 20260506193214 | 50 | 264 | 2.0 | 3.0 | 0.00 | 0.00 | 0.00 | 90 | 1014.5 |
| 20260506193110 | 50 | 260 | 2.0 | 3.0 | 0.00 | 0.00 | 0.00 | 90 | 1014.5 |
| 20260506193011 | 50 | 263 | 1.0 | 3.0 | 0.00 | 0.00 | 0.00 | 90 | 1014.5 |
| 20260506192911 | 50 | 261 | 1.0 | 3.0 | 0.00 | 0.00 | 0.00 | 90 | 1014.5 |
| 20260506192811 | 50 | 261 | 1.0 | 3.0 | 0.00 | 0.00 | 0.00 | 89 | 1014.6 |
| 20260506192712 | 50 | 259 | 1.0 | 3.0 | 0.00 | 0.00 | 0.00 | 89 | 1014.5 |
| 20260506192610 | 50 | 246 | 1.0 | 3.0 | 0.00 | 0.00 | 0.00 | 89 | 1014.5 |
| 20260506192511 | 50 | 246 | 2.0 | 3.0 | 0.00 | 0.00 | 0.00 | 89 | 1014.5 |
| 20260506192411 | 50 | 242 | 2.0 | 3.0 | 0.00 | 0.00 | 0.00 | 89 | 1014.4 |
| 20260506192312 | 50 | 245 | 2.0 | 3.0 | 0.00 | 0.00 | 0.00 | 89 | 1014.4 |
| 20260506192212 | 50 | 239 | 2.0 | 3.0 | 0.00 | 0.00 | 0.00 | 89 | 1014.4 |
| 20260506192110 | 51 | 248 | 1.0 | 3.0 | 0.00 | 0.00 | 0.00 | 89 | 1014.3 |
| 20260506192009 | 51 | 254 | 1.0 | 3.0 | 0.00 | 0.00 | 0.00 | 89 | 1014.3 |
| 20260506191910 | 51 | 251 | 1.0 | 3.0 | 0.00 | 0.00 | 0.00 | 89 | 1014.3 |
| 20260506191813 | 51 | 251 | 1.0 | 3.0 | 0.00 | 0.00 | 0.00 | 89 | 1014.3 |
| 20260506191711 | 51 | 251 | 1.0 | 3.0 | 0.00 | 0.00 | 0.00 | 89 | 1014.3 |
| 20260506191609 | 51 | 251 | 1.0 | 3.0 | 0.00 | 0.00 | 0.00 | 89 | 1014.3 |
| 20260506191512 | 51 | 267 | 2.0 | 3.0 | 0.00 | 0.00 | 0.00 | 90 | 1014.3 |
| 20260506191410 | 51 | 267 | 2.0 | 3.0 | 0.00 | 0.00 | 0.00 | 89 | 1014.3 |
| 20260506191325 | 51 | 269 | 2.0 | 3.0 | 0.00 | 0.00 | 0.00 | 89 | 1014.4 |
| 20260506191210 | 51 | 265 | 2.0 | 3.0 | 0.00 | 0.00 | 0.00 | 89 | 1014.4 |
| 20260506191110 | 51 | 264 | 0.0 | 3.0 | 0.00 | 0.00 | 0.00 | 89 | 1014.3 |
| 20260506190909 | 51 | 281 | 0.0 | 0.0 | 0.00 | 0.00 | 0.00 | 90 | 1014.3 |
| 20260506190812 | 51 | 281 | 0.0 | 0.0 | 0.00 | 0.00 | 0.00 | 90 | 1014.2 |
| 20260506190710 | 51 | 281 | 0.0 | 0.0 | 0.00 | 0.00 | 0.00 | 89 | 1014.2 |
| 20260506190610 | 51 | 281 | 0.0 | 0.0 | 0.00 | 0.00 | 0.00 | 89 | 1014.2 |
| 20260506190511 | 51 | 281 | 0.0 | 0.0 | 0.00 | 0.00 | 0.00 | 89 | 1014.1 |
| 20260506190408 | 51 | 281 | 0.0 | 0.0 | 0.00 | 0.00 | 0.00 | 89 | 1014.1 |
| 20260506190311 | 51 | 281 | 0.0 | 0.0 | 0.00 | 0.00 | 0.00 | 89 | 1014.0 |
| 20260506190211 | 51 | 281 | 0.0 | 0.0 | 0.00 | 0.00 | 0.00 | 89 | 1014.1 |
| 20260506190113 | 51 | 281 | 0.0 | 0.0 | 0.00 | 0.00 | 0.00 | 89 | 1014.0 |
| 20260506190009 | 51 | 281 | 0.0 | 0.0 | 0.00 | 0.00 | 0.00 | 89 | 1014.0 |
| 20260506185909 | 51 | 281 | 0.0 | 0.0 | 0.00 | 0.00 | 0.00 | 89 | 1014.0 |
| 20260506185815 | 51 | 281 | 0.0 | 0.0 | 0.00 | 0.00 | 0.00 | 89 | 1014.0 |
| 20260506185711 | 51 | 281 | 0.0 | 0.0 | 0.00 | 0.00 | 0.00 | 89 | 1013.9 |
| 20260506185611 | 51 | 281 | 0.0 | 0.0 | 0.00 | 0.00 | 0.00 | 90 | 1013.8 |
| 20260506185512 | 51 | 281 | 0.0 | 0.0 | 0.00 | 0.00 | 0.00 | 90 | 1013.9 |
| 20260506185412 | 51 | 281 | 0.0 | 0.0 | 0.00 | 0.00 | 0.00 | 90 | 1013.9 |
| 20260506185313 | 51 | 281 | 0.0 | 0.0 | 0.00 | 0.00 | 0.00 | 90 | 1013.7 |
| 20260506185208 | 51 | 281 | 0.0 | 0.0 | 0.00 | 0.00 | 0.00 | 90 | 1013.9 |
| 20260506185109 | 51 | 281 | 0.0 | 0.0 | 0.00 | 0.00 | 0.00 | 90 | 1013.8 |
| 20260506185014 | 52 | 281 | 0.0 | 0.0 | 0.00 | 0.00 | 0.00 | 90 | 1013.8 |
| 20260506184911 | 52 | 281 | 0.0 | 0.0 | 0.00 | 0.00 | 0.00 | 90 | 1013.7 |
| 20260506184810 | 52 | 281 | 0.0 | 0.0 | 0.00 | 0.00 | 0.00 | 90 | 1013.7 |
| 20260506184711 | 52 | 281 | 0.0 | 0.0 | 0.00 | 0.00 | 0.00 | 90 | 1013.6 |
| 20260506184611 | 52 | 281 | 0.0 | 0.0 | 0.00 | 0.00 | 0.00 | 90 | 1013.7 |
| 20260506184514 | 52 | 281 | 0.0 | 0.0 | 0.00 | 0.00 | 0.00 | 90 | 1013.6 |
| 20260506184413 | 52 | 281 | 0.0 | 0.0 | 0.00 | 0.00 | 0.00 | 90 | 1013.6 |
| 20260506184310 | 52 | 281 | 0.0 | 0.0 | 0.00 | 0.00 | 0.00 | 90 | 1013.5 |
| 20260506184210 | 52 | 281 | 0.0 | 0.0 | 0.00 | 0.00 | 0.00 | 90 | 1013.6 |
| 20260506184109 | 52 | 281 | 0.0 | 0.0 | 0.00 | 0.00 | 0.00 | 90 | 1013.5 |
| 20260506184010 | 52 | 281 | 0.0 | 1.0 | 0.00 | 0.00 | 0.00 | 90 | 1013.6 |
| 20260506183908 | 52 | 281 | 0.0 | 1.0 | 0.00 | 0.00 | 0.00 | 90 | 1013.6 |
| 20260506183811 | 52 | 281 | 0.0 | 1.0 | 0.00 | 0.00 | 0.00 | 90 | 1013.5 |
| 20260506183716 | 52 | 281 | 0.0 | 1.0 | 0.00 | 0.00 | 0.00 | 90 | 1013.6 |
| 20260506183610 | 52 | 281 | 0.0 | 1.0 | 0.00 | 0.00 | 0.00 | 90 | 1013.6 |
| 20260506183511 | 52 | 281 | 0.0 | 1.0 | 0.00 | 0.00 | 0.00 | 90 | 1013.7 |
| 20260506183411 | 52 | 281 | 0.0 | 1.0 | 0.00 | 0.00 | 0.00 | 90 | 1013.6 |
| 20260506183310 | 52 | 281 | 0.0 | 1.0 | 0.00 | 0.00 | 0.00 | 90 | 1013.6 |
| 20260506183211 | 52 | 281 | 0.0 | 1.0 | 0.00 | 0.00 | 0.00 | 90 | 1013.6 |
| 20260506183109 | 52 | 281 | 0.0 | 2.0 | 0.00 | 0.00 | 0.00 | 90 | 1013.6 |
| 20260506183011 | 52 | 281 | 0.0 | 2.0 | 0.00 | 0.00 | 0.00 | 90 | 1013.6 |
| 20260506182915 | 52 | 281 | 0.0 | 2.0 | 0.00 | 0.00 | 0.00 | 90 | 1013.5 |
| 20260506182811 | 52 | 281 | 0.0 | 2.0 | 0.00 | 0.00 | 0.00 | 90 | 1013.6 |
| 20260506182711 | 52 | 281 | 0.0 | 2.0 | 0.00 | 0.00 | 0.00 | 90 | 1013.6 |
| 20260506182608 | 52 | 281 | 1.0 | 2.0 | 0.00 | 0.00 | 0.00 | 90 | 1013.6 |
| 20260506182547 | 52 | 281 | 0.0 | 3.0 | 0.00 | 0.00 | 0.00 | 90 | 1013.6 |
| 20260506182454 | 52 | 282 | 0.0 | 3.0 | 0.00 | 0.00 | 0.00 | 90 | 1013.6 |
| 20260506182432 | 52 | 281 | 1.0 | 3.0 | 0.00 | 0.00 | 0.00 | 90 | 1013.6 |
| 20260506182409 | 52 | 281 | 1.0 | 3.0 | 0.00 | 0.00 | 0.00 | 90 | 1013.8 |
| 20260506182111 | 52 | 281 | 1.0 | 3.0 | 0.00 | 0.00 | 0.00 | 90 | 1013.6 |
| 20260506182021 | 52 | 281 | 1.0 | 3.0 | 0.00 | 0.00 | 0.00 | 90 | 1013.6 |
| 20260506181956 | 52 | 281 | 1.0 | 3.0 | 0.00 | 0.00 | 0.00 | 90 | 1013.6 |
| 20260506181935 | 52 | 281 | 1.0 | 3.0 | 0.00 | 0.00 | 0.00 | 90 | 1013.6 |
| 20260506181911 | 52 | 281 | 1.0 | 3.0 | 0.00 | 0.00 | 0.00 | 90 | 1013.6 |
| 20260506181609 | 52 | 281 | 1.0 | 3.0 | 0.00 | 0.00 | 0.00 | 90 | 1013.6 |
| 20260506181513 | 52 | 283 | 1.0 | 3.0 | 0.00 | 0.00 | 0.00 | 90 | 1013.6 |
| 20260506181408 | 52 | 283 | 1.0 | 3.0 | 0.00 | 0.00 | 0.00 | 90 | 1013.6 |
| 20260506181311 | 52 | 283 | 2.0 | 3.0 | 0.00 | 0.00 | 0.00 | 90 | 1013.6 |
| 20260506181209 | 52 | 275 | 1.0 | 3.0 | 0.00 | 0.00 | 0.00 | 90 | 1013.6 |
| 20260506181108 | 53 | 279 | 1.0 | 3.0 | 0.00 | 0.00 | 0.00 | 90 | 1013.7 |
| 20260506181014 | 53 | 275 | 1.0 | 3.0 | 0.00 | 0.00 | 0.00 | 90 | 1013.6 |
| 20260506180950 | 53 | 278 | 2.0 | 3.0 | 0.00 | 0.00 | 0.00 | 90 | 1013.7 |
| 20260506180930 | 53 | 273 | 2.0 | 4.0 | 0.00 | 0.00 | 0.00 | 90 | 1013.8 |
| 20260506180906 | 53 | 275 | 2.0 | 4.0 | 0.00 | 0.00 | 0.00 | 90 | 1013.6 |
| 20260506180610 | 53 | 271 | 1.0 | 4.0 | 0.00 | 0.00 | 0.00 | 90 | 1013.7 |
| 20260506180515 | 53 | 267 | 2.0 | 4.0 | 0.00 | 0.00 | 0.00 | 90 | 1013.7 |
| 20260506180409 | 53 | 267 | 2.0 | 4.0 | 0.00 | 0.00 | 0.00 | 90 | 1013.7 |
| 20260506180312 | 53 | 267 | 2.0 | 4.0 | 0.00 | 0.00 | 0.00 | 90 | 1013.6 |
| 20260506180209 | 53 | 273 | 1.0 | 4.0 | 0.00 | 0.00 | 0.00 | 90 | 1013.7 |
| 20260506180109 | 53 | 271 | 2.0 | 4.0 | 0.00 | 0.00 | 0.00 | 90 | 1013.7 |
| 20260506180010 | 53 | 272 | 2.0 | 4.0 | 0.00 | 0.00 | 0.00 | 90 | 1013.7 |
| 20260506175909 | 53 | 280 | 2.0 | 4.0 | 0.00 | 0.00 | 0.00 | 90 | 1013.7 |
| 20260506175810 | 53 | 273 | 2.0 | 4.0 | 0.00 | 0.00 | 0.00 | 90 | 1013.6 |
| 20260506175709 | 53 | 273 | 2.0 | 4.0 | 0.00 | 0.00 | 0.00 | 90 | 1013.7 |
| 20260506175610 | 53 | 265 | 2.0 | 4.0 | 0.00 | 0.00 | 0.00 | 90 | 1013.7 |
| 20260506175538 | 53 | 271 | 2.0 | 4.0 | 0.00 | 0.00 | 0.00 | 90 | 1013.6 |
| 20260506175409 | 53 | 281 | 2.0 | 4.0 | 0.00 | 0.00 | 0.00 | 90 | 1013.7 |
| 20260506175309 | 53 | 271 | 2.0 | 4.0 | 0.00 | 0.00 | 0.00 | 90 | 1013.6 |
| 20260506175208 | 53 | 274 | 2.0 | 4.0 | 0.00 | 0.00 | 0.00 | 90 | 1013.7 |
| 20260506175109 | 53 | 273 | 2.0 | 4.0 | 0.00 | 0.00 | 0.00 | 90 | 1013.7 |
| 20260506175009 | 53 | 270 | 2.0 | 4.0 | 0.00 | 0.00 | 0.00 | 90 | 1013.7 |
| 20260506174909 | 53 | 273 | 2.0 | 4.0 | 0.00 | 0.00 | 0.00 | 90 | 1013.8 |
| 20260506174805 | 53 | 278 | 2.0 | 4.0 | 0.00 | 0.00 | 0.00 | 90 | 1013.8 |
| 20260506174701 | 53 | 274 | 2.0 | 4.0 | 0.00 | 0.00 | 0.00 | 90 | 1013.8 |
| 20260506174602 | 53 | 263 | 2.0 | 4.0 | 0.00 | 0.00 | 0.00 | 90 | 1013.8 |
| 20260506174501 | 53 | 267 | 2.0 | 4.0 | 0.00 | 0.00 | 0.00 | 90 | 1013.7 |
| 20260506174355 | 53 | 267 | 3.0 | 4.0 | 0.00 | 0.00 | 0.00 | 90 | 1013.8 |
| 20260506174255 | 53 | 270 | 3.0 | 4.0 | 0.00 | 0.00 | 0.00 | 90 | 1013.7 |
| 20260506174154 | 53 | 279 | 2.0 | 4.0 | 0.00 | 0.00 | 0.00 | 90 | 1013.7 |
| 20260506174055 | 53 | 268 | 2.0 | 4.0 | 0.00 | 0.00 | 0.00 | 90 | 1013.8 |
| 20260506174007 | 53 | 265 | 2.0 | 4.0 | 0.00 | 0.00 | 0.00 | 90 | 1013.7 |
| 20260506173943 | 53 | 268 | 2.0 | 4.0 | 0.00 | 0.00 | 0.00 | 90 | 1013.7 |
| 20260506173918 | 53 | 272 | 2.0 | 4.0 | 0.00 | 0.00 | 0.00 | 90 | 1013.7 |
| 20260506173852 | 53 | 268 | 2.0 | 4.0 | 0.00 | 0.00 | 0.00 | 90 | 1013.8 |
| 20260506173547 | 53 | 267 | 2.0 | 4.0 | 0.00 | 0.00 | 0.00 | 90 | 1013.8 |
| 20260506173446 | 53 | 268 | 2.0 | 4.0 | 0.00 | 0.00 | 0.00 | 89 | 1013.7 |
| 20260506173342 | 53 | 273 | 2.0 | 4.0 | 0.00 | 0.00 | 0.00 | 89 | 1013.8 |
| 20260506173238 | 53 | 275 | 1.0 | 3.0 | 0.00 | 0.00 | 0.00 | 89 | 1013.8 |
| 20260506173044 | 53 | 282 | 2.0 | 3.0 | 0.00 | 0.00 | 0.00 | 89 | 1013.9 |
| 20260506172939 | 53 | 274 | 1.0 | 3.0 | 0.00 | 0.00 | 0.00 | 89 | 1013.9 |
| 20260506172837 | 53 | 275 | 1.0 | 2.0 | 0.00 | 0.00 | 0.00 | 89 | 1013.9 |
| 20260506172736 | 53 | 273 | 1.0 | 2.0 | 0.00 | 0.00 | 0.00 | 89 | 1013.9 |
| 20260506172538 | 53 | 275 | 1.0 | 2.0 | 0.00 | 0.00 | 0.00 | 90 | 1013.9 |
| 20260506172439 | 53 | 275 | 1.0 | 2.0 | 0.00 | 0.00 | 0.00 | 90 | 1014.0 |
| 20260506172337 | 53 | 275 | 1.0 | 2.0 | 0.00 | 0.00 | 0.00 | 90 | 1014.0 |
| 20260506172238 | 53 | 276 | 1.0 | 2.0 | 0.00 | 0.00 | 0.00 | 90 | 1014.1 |
| 20260506172037 | 53 | 271 | 1.0 | 2.0 | 0.00 | 0.00 | 0.00 | 90 | 1014.1 |
| 20260506171938 | 54 | 271 | 0.0 | 2.0 | 0.00 | 0.00 | 0.00 | 90 | 1014.1 |
| 20260506171836 | 54 | 270 | 0.0 | 2.0 | 0.00 | 0.00 | 0.00 | 90 | 1014.1 |
| 20260506171737 | 54 | 270 | 1.0 | 2.0 | 0.00 | 0.00 | 0.00 | 90 | 1014.1 |
| 20260506171540 | 54 | 280 | 1.0 | 2.0 | 0.00 | 0.00 | 0.00 | 89 | 1014.2 |
| 20260506171437 | 54 | 280 | 1.0 | 2.0 | 0.00 | 0.00 | 0.00 | 89 | 1014.0 |
| 20260506171336 | 54 | 280 | 1.0 | 2.0 | 0.00 | 0.00 | 0.00 | 89 | 1014.1 |
| 20260506171237 | 54 | 280 | 0.0 | 2.0 | 0.00 | 0.00 | 0.00 | 89 | 1014.0 |
| 20260506171134 | 54 | 272 | 0.0 | 2.0 | 0.00 | 0.00 | 0.00 | 89 | 1014.0 |
| 20260506171026 | 54 | 272 | 0.0 | 3.0 | 0.00 | 0.00 | 0.00 | 89 | 1014.1 |
| 20260506170927 | 54 | 272 | 1.0 | 3.0 | 0.00 | 0.00 | 0.00 | 89 | 1014.1 |
| 20260506170819 | 54 | 272 | 1.0 | 3.0 | 0.00 | 0.00 | 0.00 | 89 | 1014.1 |
| 20260506170720 | 54 | 272 | 1.0 | 3.0 | 0.00 | 0.00 | 0.00 | 89 | 1014.1 |
| 20260506170617 | 54 | 272 | 1.0 | 3.0 | 0.00 | 0.00 | 0.00 | 89 | 1014.1 |
| 20260506170517 | 54 | 273 | 1.0 | 3.0 | 0.00 | 0.00 | 0.00 | 89 | 1014.1 |
| 20260506170414 | 54 | 275 | 2.0 | 3.0 | 0.00 | 0.00 | 0.00 | 89 | 1014.1 |
| 20260506170313 | 54 | 275 | 2.0 | 3.0 | 0.00 | 0.00 | 0.00 | 89 | 1014.1 |
| 20260506170213 | 54 | 270 | 2.0 | 3.0 | 0.00 | 0.00 | 0.00 | 89 | 1014.1 |
| 20260506170110 | 54 | 272 | 2.0 | 3.0 | 0.00 | 0.00 | 0.00 | 89 | 1014.1 |
| 20260506170011 | 54 | 270 | 2.0 | 3.0 | 0.00 | 0.00 | 0.00 | 89 | 1014.2 |
| 20260506165911 | 54 | 270 | 2.0 | 3.0 | 0.00 | 0.00 | 0.00 | 89 | 1014.1 |
| 20260506165810 | 54 | 269 | 2.0 | 3.0 | 0.00 | 0.00 | 0.00 | 89 | 1014.1 |
| 20260506165710 | 54 | 271 | 2.0 | 3.0 | 0.00 | 0.00 | 0.00 | 89 | 1014.1 |
| 20260506165609 | 54 | 273 | 2.0 | 3.0 | 0.00 | 0.00 | 0.00 | 89 | 1014.1 |
| 20260506165508 | 54 | 280 | 2.0 | 4.0 | 0.00 | 0.00 | 0.00 | 89 | 1014.1 |
| 20260506165410 | 54 | 275 | 2.0 | 4.0 | 0.00 | 0.00 | 0.00 | 89 | 1014.1 |
| 20260506165309 | 54 | 273 | 2.0 | 4.0 | 0.00 | 0.00 | 0.00 | 90 | 1014.2 |
| 20260506165209 | 54 | 271 | 2.0 | 4.0 | 0.00 | 0.00 | 0.00 | 90 | 1014.2 |
| 20260506165109 | 54 | 284 | 2.0 | 4.0 | 0.00 | 0.00 | 0.00 | 90 | 1014.1 |
| 20260506165011 | 54 | 271 | 2.0 | 4.0 | 0.00 | 0.00 | 0.00 | 90 | 1014.1 |
| 20260506164943 | 54 | 275 | 2.0 | 4.0 | 0.00 | 0.00 | 0.00 | 90 | 1014.2 |
| 20260506164926 | 54 | 279 | 2.0 | 4.0 | 0.00 | 0.00 | 0.00 | 90 | 1014.2 |
| 20260506164859 | 54 | 273 | 2.0 | 4.0 | 0.00 | 0.00 | 0.00 | 90 | 1014.3 |
| 20260506164612 | 54 | 272 | 2.0 | 4.0 | 0.00 | 0.00 | 0.00 | 90 | 1014.2 |
| 20260506164512 | 54 | 273 | 2.0 | 3.0 | 0.00 | 0.00 | 0.00 | 90 | 1014.2 |
| 20260506164410 | 54 | 272 | 2.0 | 3.0 | 0.00 | 0.00 | 0.00 | 89 | 1014.2 |
| 20260506164311 | 54 | 286 | 2.0 | 3.0 | 0.00 | 0.00 | 0.00 | 89 | 1014.2 |
| 20260506164208 | 54 | 279 | 2.0 | 3.0 | 0.00 | 0.00 | 0.00 | 89 | 1014.3 |
| 20260506164111 | 54 | 279 | 2.0 | 3.0 | 0.00 | 0.00 | 0.00 | 89 | 1014.4 |
| 20260506164009 | 54 | 279 | 2.0 | 4.0 | 0.00 | 0.00 | 0.00 | 89 | 1014.5 |
| 20260506163911 | 54 | 279 | 2.0 | 4.0 | 0.00 | 0.00 | 0.00 | 89 | 1014.4 |
| 20260506163812 | 54 | 271 | 2.0 | 4.0 | 0.00 | 0.00 | 0.00 | 89 | 1014.5 |
| 20260506163716 | 54 | 274 | 2.0 | 4.0 | 0.00 | 0.00 | 0.00 | 89 | 1014.5 |
| 20260506163610 | 54 | 271 | 2.0 | 4.0 | 0.00 | 0.00 | 0.00 | 89 | 1014.5 |
| 20260506163513 | 54 | 278 | 2.0 | 4.0 | 0.00 | 0.00 | 0.00 | 89 | 1014.5 |
| 20260506163410 | 54 | 274 | 2.0 | 4.0 | 0.00 | 0.00 | 0.00 | 89 | 1014.5 |
| 20260506163310 | 54 | 275 | 2.0 | 4.0 | 0.00 | 0.00 | 0.00 | 89 | 1014.6 |
| 20260506163208 | 55 | 273 | 2.0 | 4.0 | 0.00 | 0.00 | 0.00 | 89 | 1014.7 |
| 20260506163115 | 55 | 267 | 2.0 | 4.0 | 0.00 | 0.00 | 0.00 | 89 | 1014.6 |
| 20260506163010 | 55 | 269 | 2.0 | 4.0 | 0.00 | 0.00 | 0.00 | 89 | 1014.6 |
| 20260506162950 | 55 | 273 | 2.0 | 4.0 | 0.00 | 0.00 | 0.00 | 89 | 1014.6 |
| 20260506162926 | 55 | 261 | 2.0 | 4.0 | 0.00 | 0.00 | 0.00 | 89 | 1014.6 |
| 20260506162859 | 55 | 273 | 2.0 | 4.0 | 0.00 | 0.00 | 0.00 | 89 | 1014.6 |
| 20260506162610 | 55 | 272 | 2.0 | 4.0 | 0.00 | 0.00 | 0.00 | 89 | 1014.6 |
| 20260506162510 | 55 | 268 | 2.0 | 4.0 | 0.00 | 0.00 | 0.00 | 89 | 1014.7 |
| 20260506162424 | 55 | 269 | 2.0 | 4.0 | 0.00 | 0.00 | 0.00 | 89 | 1014.6 |
| 20260506162308 | 55 | 277 | 2.0 | 4.0 | 0.00 | 0.00 | 0.00 | 89 | 1014.6 |
| 20260506162212 | 55 | 273 | 2.0 | 4.0 | 0.00 | 0.00 | 0.00 | 89 | 1014.7 |
| 20260506162110 | 55 | 279 | 2.0 | 4.0 | 0.00 | 0.00 | 0.00 | 89 | 1014.7 |
| 20260506162009 | 55 | 268 | 2.0 | 3.0 | 0.00 | 0.00 | 0.00 | 89 | 1014.8 |
| 20260506161905 | 55 | 267 | 2.0 | 3.0 | 0.00 | 0.00 | 0.00 | 89 | 1014.7 |
| 20260506161805 | 55 | 263 | 2.0 | 3.0 | 0.00 | 0.00 | 0.00 | 90 | 1014.7 |
| 20260506161708 | 55 | 267 | 2.0 | 3.0 | 0.00 | 0.00 | 0.00 | 89 | 1014.7 |
| 20260506161604 | 55 | 279 | 2.0 | 3.0 | 0.00 | 0.00 | 0.00 | 89 | 1014.7 |
| 20260506161500 | 55 | 263 | 2.0 | 3.0 | 0.00 | 0.00 | 0.00 | 89 | 1014.6 |
| 20260506161359 | 55 | 263 | 2.0 | 3.0 | 0.00 | 0.00 | 0.00 | 89 | 1014.6 |
| 20260506161301 | 55 | 266 | 2.0 | 3.0 | 0.00 | 0.00 | 0.00 | 89 | 1014.6 |
| 20260506161156 | 55 | 269 | 2.0 | 3.0 | 0.00 | 0.00 | 0.00 | 89 | 1014.6 |
| 20260506161055 | 55 | 271 | 2.0 | 3.0 | 0.00 | 0.00 | 0.00 | 89 | 1014.7 |
| 20260506160955 | 55 | 276 | 1.0 | 3.0 | 0.00 | 0.00 | 0.00 | 89 | 1014.7 |
| 20260506160847 | 55 | 281 | 1.0 | 3.0 | 0.00 | 0.00 | 0.00 | 89 | 1014.7 |
| 20260506160744 | 55 | 275 | 2.0 | 3.0 | 0.00 | 0.00 | 0.00 | 89 | 1014.9 |
| 20260506160641 | 55 | 275 | 1.0 | 3.0 | 0.00 | 0.00 | 0.00 | 89 | 1014.9 |
| 20260506160538 | 55 | 269 | 1.0 | 2.0 | 0.00 | 0.00 | 0.00 | 90 | 1014.9 |
| 20260506160438 | 56 | 264 | 1.0 | 2.0 | 0.00 | 0.00 | 0.00 | 90 | 1014.9 |
| 20260506160339 | 56 | 249 | 1.0 | 2.0 | 0.00 | 0.00 | 0.00 | 90 | 1014.9 |
| 20260506160238 | 56 | 249 | 1.0 | 2.0 | 0.00 | 0.00 | 0.00 | 89 | 1014.9 |
| 20260506160043 | 56 | 259 | 1.0 | 3.0 | 0.00 | 0.00 | 0.00 | 90 | 1014.9 |
| 20260506155937 | 56 | 259 | 1.0 | 3.0 | 0.00 | 0.00 | 0.00 | 90 | 1015.0 |
| 20260506155839 | 56 | 271 | 0.0 | 3.0 | 0.00 | 0.00 | 0.00 | 90 | 1015.0 |
| 20260506155737 | 56 | 271 | 0.0 | 3.0 | 0.00 | 0.00 | 0.00 | 90 | 1015.0 |
| 20260506155538 | 56 | 271 | 1.0 | 3.0 | 0.00 | 0.00 | 0.00 | 89 | 1014.9 |
| 20260506155440 | 56 | 271 | 1.0 | 3.0 | 0.00 | 0.00 | 0.00 | 89 | 1014.9 |
| 20260506155403 | 56 | 271 | 1.0 | 3.0 | 0.00 | 0.00 | 0.00 | 89 | 1014.9 |
| 20260506155239 | 56 | 270 | 2.0 | 3.0 | 0.00 | 0.00 | 0.00 | 89 | 1014.9 |
| 20260506155138 | 56 | 275 | 2.0 | 3.0 | 0.00 | 0.00 | 0.00 | 89 | 1014.8 |
| 20260506155038 | 56 | 275 | 1.0 | 2.0 | 0.00 | 0.00 | 0.00 | 89 | 1014.9 |
| 20260506154941 | 56 | 275 | 0.0 | 2.0 | 0.00 | 0.00 | 0.00 | 89 | 1014.9 |
| 20260506154837 | 56 | 275 | 0.0 | 2.0 | 0.00 | 0.00 | 0.00 | 89 | 1015.0 |
| 20260506154738 | 56 | 275 | 0.0 | 2.0 | 0.00 | 0.00 | 0.00 | 90 | 1014.9 |
| 20260506154537 | 56 | 275 | 0.0 | 2.0 | 0.00 | 0.00 | 0.00 | 89 | 1014.9 |
| 20260506154455 | 56 | 275 | 1.0 | 2.0 | 0.00 | 0.00 | 0.00 | 89 | 1014.9 |
| 20260506154428 | 56 | 275 | 1.0 | 2.0 | 0.00 | 0.00 | 0.00 | 90 | 1014.8 |
| 20260506154410 | 56 | 275 | 1.0 | 3.0 | 0.00 | 0.00 | 0.00 | 89 | 1014.9 |
| 20260506154341 | 56 | 275 | 1.0 | 3.0 | 0.00 | 0.00 | 0.00 | 89 | 1014.9 |
| 20260506154038 | 56 | 275 | 1.0 | 3.0 | 0.00 | 0.00 | 0.00 | 89 | 1014.9 |
| 20260506153931 | 56 | 275 | 1.0 | 3.0 | 0.00 | 0.00 | 0.00 | 89 | 1014.9 |
| 20260506153825 | 56 | 275 | 1.0 | 3.0 | 0.00 | 0.00 | 0.00 | 89 | 1014.9 |
| 20260506153722 | 56 | 275 | 1.0 | 3.0 | 0.00 | 0.00 | 0.00 | 89 | 1014.9 |
| 20260506153521 | 56 | 275 | 2.0 | 3.0 | 0.00 | 0.00 | 0.00 | 89 | 1014.9 |
| 20260506153414 | 57 | 281 | 2.0 | 3.0 | 0.00 | 0.00 | 0.00 | 89 | 1015.0 |
| 20260506153314 | 57 | 289 | 1.0 | 3.0 | 0.00 | 0.00 | 0.00 | 89 | 1015.0 |
| 20260506153213 | 57 | 283 | 1.0 | 2.0 | 0.00 | 0.00 | 0.00 | 89 | 1014.9 |
| 20260506153009 | 57 | 283 | 1.0 | 2.0 | 0.00 | 0.00 | 0.00 | 89 | 1015.0 |
| 20260506152931 | 57 | 283 | 0.0 | 2.0 | 0.00 | 0.00 | 0.00 | 89 | 1015.1 |
| 20260506152908 | 57 | 283 | 0.0 | 2.0 | 0.00 | 0.00 | 0.00 | 89 | 1014.9 |
| 20260506152846 | 57 | 271 | 0.0 | 0.0 | 0.00 | 0.00 | 0.00 | 89 | 1015.1 |
| 20260506152823 | 57 | 271 | 0.0 | 0.0 | 0.00 | 0.00 | 0.00 | 89 | 1015.0 |
| 20260506152516 | 57 | 271 | 0.0 | 0.0 | 0.00 | 0.00 | 0.00 | 89 | 1015.1 |
| 20260506152408 | 57 | 271 | 0.0 | 0.0 | 0.00 | 0.00 | 0.00 | 89 | 1015.0 |
| 20260506152311 | 57 | 271 | 0.0 | 0.0 | 0.00 | 0.00 | 0.00 | 89 | 1015.1 |
| 20260506152212 | 57 | 271 | 0.0 | 0.0 | 0.00 | 0.00 | 0.00 | 89 | 1015.1 |
| 20260506152008 | 57 | 271 | 0.0 | 0.0 | 0.00 | 0.00 | 0.00 | 89 | 1015.0 |
| 20260506151934 | 57 | 271 | 0.0 | 0.0 | 0.00 | 0.00 | 0.00 | 89 | 1015.2 |
| 20260506151913 | 57 | 271 | 0.0 | 0.0 | 0.00 | 0.00 | 0.00 | 89 | 1015.2 |
| 20260506151849 | 57 | 271 | 0.0 | 0.0 | 0.00 | 0.00 | 0.00 | 89 | 1015.2 |
| 20260506151826 | 57 | 271 | 0.0 | 0.0 | 0.00 | 0.00 | 0.00 | 89 | 1015.1 |
| 20260506151457 | 57 | 271 | 0.0 | 0.0 | 0.00 | 0.00 | 0.00 | 89 | 1015.2 |
| 20260506151349 | 57 | 271 | 0.0 | 0.0 | 0.00 | 0.00 | 0.00 | 89 | 1015.2 |
| 20260506151249 | 57 | 271 | 0.0 | 0.0 | 0.00 | 0.00 | 0.00 | 89 | 1015.2 |
| 20260506151149 | 58 | 271 | 0.0 | 0.0 | 0.00 | 0.00 | 0.00 | 89 | 1015.2 |
| 20260506151048 | 58 | 271 | 0.0 | 0.0 | 0.00 | 0.00 | 0.00 | 89 | 1015.3 |
| 20260506150948 | 58 | 271 | 0.0 | 0.0 | 0.00 | 0.00 | 0.00 | 89 | 1015.3 |
| 20260506150917 | 58 | 271 | 0.0 | 0.0 | 0.00 | 0.00 | 0.00 | 89 | 1015.2 |
| 20260506150857 | 58 | 271 | 0.0 | 0.0 | 0.00 | 0.00 | 0.00 | 89 | 1015.3 |
| 20260506150832 | 58 | 271 | 0.0 | 0.0 | 0.00 | 0.00 | 0.00 | 89 | 1015.3 |
| 20260506150543 | 58 | 271 | 0.0 | 0.0 | 0.00 | 0.00 | 0.00 | 89 | 1015.3 |
| 20260506150443 | 58 | 271 | 0.0 | 0.0 | 0.00 | 0.00 | 0.00 | 89 | 1015.2 |
| 20260506150342 | 58 | 271 | 0.0 | 1.0 | 0.00 | 0.00 | 0.00 | 89 | 1015.1 |
| 20260506150244 | 58 | 271 | 0.0 | 1.0 | 0.00 | 0.00 | 0.00 | 89 | 1015.3 |
| 20260506150141 | 58 | 271 | 0.0 | 1.0 | 0.00 | 0.00 | 0.00 | 89 | 1015.1 |
| 20260506150037 | 58 | 271 | 0.0 | 1.0 | 0.00 | 0.00 | 0.00 | 89 | 1015.3 |
| 20260506145939 | 58 | 271 | 0.0 | 1.0 | 0.00 | 0.00 | 0.00 | 89 | 1015.2 |
| 20260506145838 | 58 | 271 | 0.0 | 1.0 | 0.00 | 0.00 | 0.00 | 89 | 1015.2 |
| 20260506145738 | 58 | 271 | 0.0 | 1.0 | 0.00 | 0.00 | 0.00 | 89 | 1015.2 |
| 20260506145637 | 58 | 271 | 0.0 | 2.0 | 0.00 | 0.00 | 0.00 | 89 | 1015.3 |
| 20260506145538 | 58 | 271 | 0.0 | 2.0 | 0.00 | 0.00 | 0.00 | 89 | 1015.2 |
| 20260506145440 | 58 | 271 | 1.0 | 2.0 | 0.00 | 0.00 | 0.00 | 89 | 1015.2 |
| 20260506145338 | 58 | 271 | 1.0 | 2.0 | 0.00 | 0.00 | 0.00 | 89 | 1015.2 |
| 20260506145237 | 58 | 271 | 1.0 | 2.0 | 0.00 | 0.00 | 0.00 | 89 | 1015.2 |
| 20260506145136 | 58 | 271 | 0.0 | 3.0 | 0.00 | 0.00 | 0.00 | 89 | 1015.3 |
| 20260506145030 | 58 | 271 | 0.0 | 3.0 | 0.00 | 0.00 | 0.00 | 89 | 1015.2 |
| 20260506144930 | 58 | 271 | 0.0 | 3.0 | 0.00 | 0.00 | 0.00 | 89 | 1015.3 |
| 20260506144824 | 58 | 271 | 0.0 | 3.0 | 0.00 | 0.00 | 0.00 | 89 | 1015.3 |
| 20260506144728 | 58 | 271 | 0.0 | 3.0 | 0.00 | 0.00 | 0.00 | 89 | 1015.3 |
| 20260506144626 | 58 | 271 | 0.0 | 3.0 | 0.00 | 0.00 | 0.00 | 89 | 1015.3 |
| 20260506144520 | 58 | 271 | 0.0 | 3.0 | 0.00 | 0.00 | 0.00 | 89 | 1015.4 |
| 20260506144421 | 58 | 271 | 1.0 | 3.0 | 0.00 | 0.00 | 0.00 | 89 | 1015.3 |
| 20260506144321 | 58 | 259 | 2.0 | 3.0 | 0.00 | 0.00 | 0.00 | 89 | 1015.4 |
| 20260506144225 | 58 | 235 | 1.0 | 3.0 | 0.00 | 0.00 | 0.00 | 89 | 1015.4 |
| 20260506144119 | 58 | 260 | 1.0 | 2.0 | 0.00 | 0.00 | 0.00 | 89 | 1015.4 |
| 20260506144019 | 59 | 277 | 1.0 | 2.0 | 0.00 | 0.00 | 0.00 | 89 | 1015.4 |
| 20260506143919 | 59 | 238 | 0.0 | 2.0 | 0.00 | 0.00 | 0.00 | 89 | 1015.4 |
| 20260506143819 | 59 | 238 | 0.0 | 2.0 | 0.00 | 0.00 | 0.00 | 89 | 1015.3 |
| 20260506143720 | 59 | 238 | 0.0 | 2.0 | 0.00 | 0.00 | 0.00 | 89 | 1015.3 |
| 20260506143520 | 59 | 238 | 1.0 | 2.0 | 0.00 | 0.00 | 0.00 | 89 | 1015.4 |
| 20260506143415 | 59 | 238 | 1.0 | 2.0 | 0.00 | 0.00 | 0.00 | 89 | 1015.4 |
| 20260506143312 | 59 | 238 | 1.0 | 2.0 | 0.00 | 0.00 | 0.00 | 89 | 1015.3 |
| 20260506143214 | 59 | 238 | 0.0 | 2.0 | 0.00 | 0.00 | 0.00 | 89 | 1015.3 |
| 20260506143012 | 59 | 238 | 0.0 | 2.0 | 0.00 | 0.00 | 0.00 | 89 | 1015.4 |
| 20260506142909 | 59 | 238 | 1.0 | 2.0 | 0.00 | 0.00 | 0.00 | 90 | 1015.4 |
| 20260506142810 | 59 | 238 | 1.0 | 2.0 | 0.00 | 0.00 | 0.00 | 90 | 1015.4 |
| 20260506142709 | 59 | 238 | 1.0 | 2.0 | 0.00 | 0.00 | 0.00 | 90 | 1015.4 |
| 20260506142518 | 59 | 243 | 1.0 | 2.0 | 0.00 | 0.00 | 0.00 | 90 | 1015.4 |
| 20260506142409 | 59 | 286 | 1.0 | 2.0 | 0.00 | 0.00 | 0.00 | 90 | 1015.4 |
| 20260506142310 | 59 | 313 | 0.0 | 2.0 | 0.00 | 0.00 | 0.00 | 90 | 1015.5 |
| 20260506142215 | 59 | 263 | 0.0 | 0.0 | 0.00 | 0.00 | 0.00 | 90 | 1015.4 |
| 20260506142114 | 59 | 263 | 0.0 | 0.0 | 0.00 | 0.00 | 0.00 | 90 | 1015.5 |
| 20260506142055 | 59 | 263 | 0.0 | 0.0 | 0.00 | 0.00 | 0.00 | 90 | 1015.5 |
| 20260506141810 | 59 | 263 | 0.0 | 0.0 | 0.00 | 0.00 | 0.00 | 90 | 1015.5 |
| 20260506141709 | 59 | 263 | 0.0 | 1.0 | 0.00 | 0.00 | 0.00 | 90 | 1015.5 |
| 20260506141620 | 59 | 263 | 0.0 | 1.0 | 0.00 | 0.00 | 0.00 | 90 | 1015.5 |
| 20260506141513 | 59 | 263 | 0.0 | 3.0 | 0.00 | 0.00 | 0.00 | 90 | 1015.5 |
| 20260506141410 | 59 | 263 | 0.0 | 3.0 | 0.00 | 0.00 | 0.00 | 90 | 1015.5 |
| 20260506141308 | 59 | 263 | 0.0 | 3.0 | 0.00 | 0.00 | 0.00 | 90 | 1015.5 |
| 20260506141210 | 59 | 263 | 0.0 | 3.0 | 0.00 | 0.00 | 0.00 | 90 | 1015.4 |
| 20260506141008 | 59 | 263 | 0.0 | 3.0 | 0.00 | 0.00 | 0.00 | 90 | 1015.5 |
| 20260506140910 | 59 | 263 | 0.0 | 3.0 | 0.00 | 0.00 | 0.00 | 90 | 1015.4 |
| 20260506140808 | 59 | 263 | 1.0 | 3.0 | 0.00 | 0.00 | 0.00 | 90 | 1015.4 |
| 20260506140656 | 59 | 273 | 1.0 | 3.0 | 0.00 | 0.00 | 0.00 | 90 | 1015.3 |
| 20260506140553 | 59 | 273 | 1.0 | 4.0 | 0.00 | 0.00 | 0.00 | 90 | 1015.4 |
| 20260506140447 | 59 | 268 | 0.0 | 4.0 | 0.00 | 0.00 | 0.00 | 90 | 1015.4 |
| 20260506140346 | 59 | 277 | 0.0 | 4.0 | 0.00 | 0.00 | 0.00 | 90 | 1015.4 |
| 20260506140243 | 59 | 277 | 1.0 | 4.0 | 0.00 | 0.00 | 0.00 | 90 | 1015.3 |
| 20260506140140 | 59 | 277 | 2.0 | 4.0 | 0.00 | 0.00 | 0.00 | 90 | 1015.4 |
| 20260506140043 | 59 | 281 | 2.0 | 4.0 | 0.00 | 0.00 | 0.00 | 90 | 1015.3 |
| 20260506135937 | 59 | 284 | 2.0 | 4.0 | 0.00 | 0.00 | 0.00 | 90 | 1015.3 |
| 20260506135841 | 60 | 316 | 2.0 | 4.0 | 0.00 | 0.00 | 0.00 | 90 | 1015.4 |
| 20260506135738 | 60 | 301 | 2.0 | 4.0 | 0.00 | 0.00 | 0.00 | 90 | 1015.3 |
| 20260506135639 | 60 | 300 | 2.0 | 4.0 | 0.00 | 0.00 | 0.00 | 90 | 1015.3 |
| 20260506135539 | 60 | 281 | 2.0 | 4.0 | 0.00 | 0.00 | 0.00 | 90 | 1015.2 |
| 20260506135441 | 60 | 281 | 2.0 | 4.0 | 0.00 | 0.00 | 0.00 | 90 | 1015.3 |
| 20260506135337 | 60 | 300 | 2.0 | 3.0 | 0.00 | 0.00 | 0.00 | 90 | 1015.3 |
| 20260506135251 | 60 | 292 | 2.0 | 4.0 | 0.00 | 0.00 | 0.00 | 90 | 1015.3 |
| 20260506135139 | 59 | 305 | 2.0 | 4.0 | 0.00 | 0.00 | 0.00 | 90 | 1015.4 |
| 20260506135044 | 60 | 305 | 2.0 | 4.0 | 0.00 | 0.00 | 0.00 | 90 | 1015.4 |
| 20260506134939 | 60 | 296 | 2.0 | 4.0 | 0.00 | 0.00 | 0.00 | 90 | 1015.3 |
| 20260506134838 | 60 | 315 | 1.0 | 4.0 | 0.00 | 0.00 | 0.00 | 90 | 1015.3 |
| 20260506134737 | 60 | 273 | 1.0 | 4.0 | 0.00 | 0.00 | 0.00 | 90 | 1015.3 |
| 20260506134640 | 60 | 321 | 2.0 | 4.0 | 0.00 | 0.00 | 0.00 | 90 | 1015.2 |
| 20260506134543 | 60 | 292 | 2.0 | 4.0 | 0.00 | 0.00 | 0.00 | 90 | 1015.3 |
| 20260506134438 | 60 | 278 | 2.0 | 4.0 | 0.00 | 0.00 | 0.00 | 90 | 1015.3 |
| 20260506134414 | 60 | 316 | 2.0 | 4.0 | 0.00 | 0.00 | 0.00 | 90 | 1015.3 |
| 20260506134319 | 60 | 290 | 2.0 | 4.0 | 0.00 | 0.00 | 0.00 | 90 | 1015.3 |
| 20260506134041 | 60 | 292 | 2.0 | 4.0 | 0.00 | 0.00 | 0.00 | 90 | 1015.4 |
| 20260506133938 | 60 | 288 | 2.0 | 4.0 | 0.00 | 0.00 | 0.00 | 90 | 1015.4 |
| 20260506133837 | 60 | 298 | 2.0 | 4.0 | 0.00 | 0.00 | 0.00 | 90 | 1015.3 |
| 20260506133738 | 60 | 327 | 2.0 | 4.0 | 0.00 | 0.00 | 0.00 | 90 | 1015.3 |
| 20260506133640 | 60 | 305 | 2.0 | 5.0 | 0.00 | 0.00 | 0.00 | 90 | 1015.3 |
| 20260506133537 | 60 | 338 | 1.0 | 6.0 | 0.00 | 0.00 | 0.00 | 90 | 1015.3 |
| 20260506133438 | 60 | 322 | 2.0 | 6.0 | 0.00 | 0.00 | 0.00 | 90 | 1015.3 |
| 20260506133337 | 60 | 312 | 1.0 | 6.0 | 0.00 | 0.00 | 0.00 | 90 | 1015.3 |
| 20260506133238 | 60 | 318 | 2.0 | 6.0 | 0.00 | 0.00 | 0.00 | 90 | 1015.4 |
| 20260506133140 | 60 | 322 | 2.0 | 6.0 | 0.00 | 0.00 | 0.00 | 90 | 1015.3 |
| 20260506133038 | 60 | 303 | 2.0 | 6.0 | 0.00 | 0.00 | 0.00 | 90 | 1015.4 |
| 20260506132939 | 60 | 323 | 2.0 | 6.0 | 0.00 | 0.00 | 0.00 | 90 | 1015.4 |
| 20260506132839 | 60 | 334 | 3.0 | 6.0 | 0.00 | 0.00 | 0.00 | 90 | 1015.4 |
| 20260506132738 | 60 | 329 | 4.0 | 6.0 | 0.00 | 0.00 | 0.00 | 90 | 1015.4 |
| 20260506132641 | 60 | 22 | 3.0 | 6.0 | 0.00 | 0.00 | 0.00 | 90 | 1015.4 |
| 20260506132539 | 60 | 335 | 1.0 | 5.0 | 0.00 | 0.00 | 0.00 | 90 | 1015.4 |
| 20260506132440 | 60 | 333 | 1.0 | 5.0 | 0.00 | 0.00 | 0.00 | 90 | 1015.5 |
| 20260506132342 | 60 | 333 | 2.0 | 5.0 | 0.00 | 0.00 | 0.00 | 90 | 1015.5 |
| 20260506132238 | 60 | 340 | 3.0 | 5.0 | 0.00 | 0.00 | 0.00 | 90 | 1015.5 |
| 20260506132138 | 60 | 327 | 3.0 | 5.0 | 0.00 | 0.00 | 0.00 | 90 | 1015.5 |
| 20260506132037 | 60 | 319 | 3.0 | 5.0 | 0.00 | 0.00 | 0.00 | 90 | 1015.6 |
| 20260506131938 | 59 | 316 | 2.0 | 5.0 | 0.00 | 0.00 | 0.00 | 90 | 1015.5 |
| 20260506131839 | 60 | 309 | 2.0 | 5.0 | 0.00 | 0.00 | 0.00 | 90 | 1015.5 |
| 20260506131740 | 59 | 303 | 3.0 | 5.0 | 0.00 | 0.00 | 0.00 | 90 | 1015.6 |
| 20260506131637 | 59 | 288 | 2.0 | 5.0 | 0.00 | 0.00 | 0.00 | 90 | 1015.6 |
| 20260506131536 | 59 | 296 | 2.0 | 5.0 | 0.00 | 0.00 | 0.00 | 90 | 1015.6 |
| 20260506131437 | 59 | 306 | 3.0 | 5.0 | 0.00 | 0.00 | 0.00 | 90 | 1015.6 |
| 20260506131327 | 59 | 324 | 3.0 | 5.0 | 0.00 | 0.00 | 0.00 | 90 | 1015.6 |
| 20260506131224 | 59 | 340 | 2.0 | 5.0 | 0.00 | 0.00 | 0.00 | 90 | 1015.6 |
| 20260506131124 | 59 | 301 | 2.0 | 6.0 | 0.00 | 0.00 | 0.00 | 90 | 1015.6 |
| 20260506131020 | 59 | 327 | 2.0 | 6.0 | 0.00 | 0.00 | 0.00 | 90 | 1015.6 |
| 20260506130922 | 59 | 327 | 1.0 | 6.0 | 0.00 | 0.00 | 0.00 | 90 | 1015.6 |
| 20260506130859 | 59 | 348 | 1.0 | 6.0 | 0.00 | 0.00 | 0.00 | 90 | 1015.6 |
| 20260506130830 | 59 | 338 | 2.0 | 6.0 | 0.00 | 0.00 | 0.00 | 90 | 1015.6 |
| 20260506130807 | 59 | 342 | 2.0 | 6.0 | 0.00 | 0.00 | 0.00 | 90 | 1015.7 |
| 20260506130516 | 59 | 298 | 1.0 | 6.0 | 0.00 | 0.00 | 0.00 | 89 | 1015.7 |
| 20260506130414 | 59 | 348 | 2.0 | 6.0 | 0.00 | 0.00 | 0.00 | 89 | 1015.7 |
| 20260506130312 | 59 | 339 | 2.0 | 6.0 | 0.00 | 0.00 | 0.00 | 89 | 1015.7 |
| 20260506130215 | 59 | 340 | 1.0 | 6.0 | 0.00 | 0.00 | 0.00 | 89 | 1015.7 |
| 20260506130111 | 59 | 335 | 2.0 | 4.0 | 0.00 | 0.00 | 0.00 | 89 | 1015.7 |
| 20260506130011 | 59 | 336 | 2.0 | 4.0 | 0.00 | 0.00 | 0.00 | 89 | 1015.8 |
| 20260506125909 | 59 | 316 | 1.0 | 3.0 | 0.00 | 0.00 | 0.00 | 89 | 1015.8 |
| 20260506125813 | 59 | 332 | 2.0 | 3.0 | 0.00 | 0.00 | 0.00 | 89 | 1015.8 |
| 20260506125709 | 59 | 323 | 2.0 | 3.0 | 0.00 | 0.00 | 0.00 | 89 | 1015.8 |
| 20260506125609 | 59 | 313 | 2.0 | 3.0 | 0.00 | 0.00 | 0.00 | 89 | 1015.9 |
| 20260506125513 | 59 | 319 | 1.0 | 3.0 | 0.00 | 0.00 | 0.00 | 89 | 1015.8 |
| 20260506125410 | 59 | 304 | 1.0 | 3.0 | 0.00 | 0.00 | 0.00 | 89 | 1015.9 |
| 20260506125309 | 59 | 288 | 1.0 | 2.0 | 0.00 | 0.00 | 0.00 | 89 | 1015.8 |
| 20260506125215 | 59 | 288 | 0.0 | 2.0 | 0.00 | 0.00 | 0.00 | 89 | 1015.9 |
| 20260506125110 | 59 | 302 | 0.0 | 2.0 | 0.00 | 0.00 | 0.00 | 89 | 1015.9 |
| 20260506125012 | 59 | 302 | 0.0 | 2.0 | 0.00 | 0.00 | 0.00 | 89 | 1015.9 |
| 20260506124908 | 59 | 302 | 0.0 | 2.0 | 0.00 | 0.00 | 0.00 | 89 | 1016.0 |
| 20260506124806 | 59 | 302 | 0.0 | 2.0 | 0.00 | 0.00 | 0.00 | 89 | 1015.9 |
| 20260506124711 | 59 | 302 | 0.0 | 2.0 | 0.00 | 0.00 | 0.00 | 89 | 1015.9 |
| 20260506124608 | 59 | 290 | 0.0 | 2.0 | 0.00 | 0.00 | 0.00 | 89 | 1015.9 |
| 20260506124501 | 59 | 290 | 0.0 | 2.0 | 0.00 | 0.00 | 0.00 | 89 | 1016.0 |
| 20260506124400 | 59 | 290 | 0.0 | 3.0 | 0.00 | 0.00 | 0.00 | 89 | 1016.0 |
| 20260506124259 | 59 | 290 | 1.0 | 3.0 | 0.00 | 0.00 | 0.00 | 89 | 1016.0 |
| 20260506124157 | 60 | 290 | 1.0 | 3.0 | 0.00 | 0.00 | 0.00 | 89 | 1016.0 |
| 20260506124059 | 60 | 290 | 1.0 | 4.0 | 0.00 | 0.00 | 0.00 | 89 | 1016.0 |
| 20260506123953 | 59 | 297 | 1.0 | 4.0 | 0.00 | 0.00 | 0.00 | 89 | 1016.0 |
| 20260506123857 | 60 | 297 | 1.0 | 4.0 | 0.00 | 0.00 | 0.00 | 89 | 1016.0 |
| 20260506123750 | 59 | 292 | 1.0 | 4.0 | 0.00 | 0.00 | 0.00 | 89 | 1016.1 |
| 20260506123652 | 60 | 290 | 1.0 | 4.0 | 0.00 | 0.00 | 0.00 | 89 | 1016.2 |
| 20260506123546 | 59 | 298 | 2.0 | 4.0 | 0.00 | 0.00 | 0.00 | 89 | 1016.1 |
| 20260506123446 | 60 | 290 | 1.0 | 4.0 | 0.00 | 0.00 | 0.00 | 89 | 1016.2 |
| 20260506123339 | 59 | 298 | 1.0 | 4.0 | 0.00 | 0.00 | 0.00 | 89 | 1016.2 |
| 20260506123242 | 60 | 298 | 1.0 | 4.0 | 0.00 | 0.00 | 0.00 | 89 | 1016.2 |
| 20260506123137 | 59 | 297 | 1.0 | 4.0 | 0.00 | 0.00 | 0.00 | 89 | 1016.2 |
| 20260506123044 | 59 | 296 | 1.0 | 4.0 | 0.00 | 0.00 | 0.00 | 89 | 1016.2 |
| 20260506122947 | 59 | 290 | 2.0 | 4.0 | 0.00 | 0.00 | 0.00 | 89 | 1016.2 |
| 20260506122920 | 59 | 281 | 1.0 | 4.0 | 0.00 | 0.00 | 0.00 | 88 | 1016.3 |
| 20260506122850 | 59 | 285 | 1.0 | 4.0 | 0.00 | 0.00 | 0.00 | 88 | 1016.3 |
| 20260506122823 | 59 | 282 | 2.0 | 4.0 | 0.00 | 0.00 | 0.00 | 88 | 1016.4 |
| 20260506122755 | 59 | 282 | 2.0 | 4.0 | 0.00 | 0.00 | 0.00 | 88 | 1016.4 |
| 20260506122438 | 59 | 277 | 2.0 | 4.0 | 0.00 | 0.00 | 0.00 | 88 | 1016.4 |
| 20260506122340 | 59 | 266 | 2.0 | 4.0 | 0.00 | 0.00 | 0.00 | 88 | 1016.5 |
| 20260506122240 | 59 | 273 | 2.0 | 3.0 | 0.00 | 0.00 | 0.00 | 88 | 1016.4 |
| 20260506122143 | 59 | 268 | 2.0 | 3.0 | 0.00 | 0.00 | 0.00 | 88 | 1016.5 |
| 20260506121938 | 59 | 266 | 1.0 | 2.0 | 0.00 | 0.00 | 0.00 | 88 | 1016.4 |
| 20260506121906 | 59 | 264 | 1.0 | 2.0 | 0.00 | 0.00 | 0.00 | 88 | 1016.5 |
| 20260506121846 | 59 | 266 | 1.0 | 2.0 | 0.00 | 0.00 | 0.00 | 88 | 1016.5 |
| 20260506121821 | 60 | 266 | 1.0 | 2.0 | 0.00 | 0.00 | 0.00 | 88 | 1016.5 |
| 20260506121751 | 60 | 273 | 1.0 | 3.0 | 0.00 | 0.00 | 0.00 | 88 | 1016.5 |
| 20260506121436 | 60 | 273 | 1.0 | 3.0 | 0.00 | 0.00 | 0.00 | 88 | 1016.5 |
| 20260506121336 | 60 | 271 | 1.0 | 3.0 | 0.00 | 0.00 | 0.00 | 88 | 1016.5 |
| 20260506121238 | 60 | 263 | 1.0 | 3.0 | 0.00 | 0.00 | 0.00 | 88 | 1016.5 |
| 20260506121139 | 60 | 264 | 1.0 | 3.0 | 0.00 | 0.00 | 0.00 | 87 | 1016.5 |
| 20260506120937 | 60 | 269 | 1.0 | 3.0 | 0.00 | 0.00 | 0.00 | 87 | 1016.6 |
| 20260506120837 | 60 | 269 | 2.0 | 3.0 | 0.00 | 0.00 | 0.00 | 87 | 1016.6 |
| 20260506120735 | 60 | 269 | 2.0 | 3.0 | 0.00 | 0.00 | 0.00 | 87 | 1016.7 |
| 20260506120634 | 60 | 264 | 1.0 | 3.0 | 0.00 | 0.00 | 0.00 | 87 | 1016.5 |
| 20260506120532 | 60 | 227 | 1.0 | 2.0 | 0.00 | 0.00 | 0.00 | 87 | 1016.5 |
| 20260506120429 | 60 | 240 | 2.0 | 2.0 | 0.00 | 0.00 | 0.00 | 87 | 1016.6 |
| 20260506120324 | 60 | 239 | 1.0 | 2.0 | 0.00 | 0.00 | 0.00 | 87 | 1016.6 |
| 20260506120217 | 60 | 250 | 1.0 | 2.0 | 0.00 | 0.00 | 0.00 | 87 | 1016.6 |
| 20260506120114 | 60 | 236 | 1.0 | 2.0 | 0.00 | 0.00 | 0.00 | 87 | 1016.6 |
| 20260506120013 | 60 | 241 | 1.0 | 2.0 | 0.00 | 0.00 | 0.00 | 87 | 1016.5 |
| 20260506115911 | 60 | 351 | 1.0 | 2.0 | 0.00 | 0.00 | 0.00 | 87 | 1016.6 |
| 20260506115813 | 60 | 351 | 0.0 | 2.0 | 0.00 | 0.00 | 0.00 | 87 | 1016.6 |
| 20260506115710 | 60 | 351 | 0.0 | 2.0 | 0.00 | 0.00 | 0.00 | 87 | 1016.5 |
| 20260506115610 | 60 | 351 | 0.0 | 2.0 | 0.00 | 0.00 | 0.00 | 87 | 1016.6 |
| 20260506115511 | 60 | 351 | 0.0 | 2.0 | 0.00 | 0.00 | 0.00 | 87 | 1016.6 |
| 20260506115409 | 60 | 351 | 1.0 | 2.0 | 0.00 | 0.00 | 0.00 | 87 | 1016.6 |
| 20260506115310 | 60 | 351 | 1.0 | 2.0 | 0.00 | 0.00 | 0.00 | 87 | 1016.5 |
| 20260506115210 | 60 | 351 | 0.0 | 2.0 | 0.00 | 0.00 | 0.00 | 87 | 1016.6 |
| 20260506115113 | 60 | 351 | 0.0 | 1.0 | 0.00 | 0.00 | 0.00 | 87 | 1016.6 |
| 20260506115011 | 60 | 351 | 0.0 | 1.0 | 0.00 | 0.00 | 0.00 | 87 | 1016.6 |
| 20260506114908 | 60 | 351 | 0.0 | 1.0 | 0.00 | 0.00 | 0.00 | 87 | 1016.6 |
| 20260506114815 | 60 | 351 | 0.0 | 1.0 | 0.00 | 0.00 | 0.00 | 87 | 1016.7 |
| 20260506114713 | 60 | 351 | 0.0 | 1.0 | 0.00 | 0.00 | 0.00 | 87 | 1016.6 |
| 20260506114612 | 60 | 351 | 0.0 | 0.0 | 0.00 | 0.00 | 0.00 | 87 | 1016.7 |
| 20260506114511 | 60 | 351 | 0.0 | 0.0 | 0.00 | 0.00 | 0.00 | 87 | 1016.7 |
| 20260506114409 | 60 | 351 | 0.0 | 0.0 | 0.00 | 0.00 | 0.00 | 87 | 1016.7 |
| 20260506114311 | 60 | 351 | 0.0 | 0.0 | 0.00 | 0.00 | 0.00 | 87 | 1016.6 |
| 20260506114209 | 60 | 351 | 0.0 | 0.0 | 0.00 | 0.00 | 0.00 | 87 | 1016.7 |
| 20260506114116 | 60 | 351 | 0.0 | 1.0 | 0.00 | 0.00 | 0.00 | 87 | 1016.7 |
| 20260506114009 | 60 | 351 | 0.0 | 1.0 | 0.00 | 0.00 | 0.00 | 87 | 1016.7 |
| 20260506113913 | 60 | 351 | 0.0 | 1.0 | 0.00 | 0.00 | 0.00 | 87 | 1016.7 |
| 20260506113808 | 60 | 351 | 0.0 | 1.0 | 0.00 | 0.00 | 0.00 | 87 | 1016.7 |
| 20260506113655 | 60 | 351 | 0.0 | 1.0 | 0.00 | 0.00 | 0.00 | 87 | 1016.7 |
| 20260506113557 | 60 | 351 | 0.0 | 1.0 | 0.00 | 0.00 | 0.00 | 87 | 1016.7 |
| 20260506113454 | 60 | 351 | 0.0 | 1.0 | 0.00 | 0.00 | 0.00 | 87 | 1016.9 |
| 20260506113350 | 60 | 351 | 0.0 | 2.0 | 0.00 | 0.00 | 0.00 | 87 | 1016.7 |
| 20260506113251 | 60 | 351 | 0.0 | 2.0 | 0.00 | 0.00 | 0.00 | 87 | 1016.7 |
| 20260506113139 | 60 | 351 | 0.0 | 2.0 | 0.00 | 0.00 | 0.00 | 87 | 1016.7 |
| 20260506113040 | 60 | 351 | 0.0 | 2.0 | 0.00 | 0.00 | 0.00 | 87 | 1016.7 |
| 20260506112948 | 60 | 351 | 0.0 | 2.0 | 0.00 | 0.00 | 0.00 | 87 | 1016.8 |
| 20260506112837 | 61 | 351 | 0.0 | 2.0 | 0.00 | 0.00 | 0.00 | 87 | 1016.8 |
| 20260506112739 | 61 | 351 | 0.0 | 2.0 | 0.00 | 0.00 | 0.00 | 87 | 1016.8 |
| 20260506112637 | 61 | 351 | 0.0 | 2.0 | 0.00 | 0.00 | 0.00 | 87 | 1016.7 |
| 20260506112540 | 61 | 351 | 0.0 | 2.0 | 0.00 | 0.00 | 0.00 | 87 | 1016.8 |
| 20260506112437 | 61 | 351 | 0.0 | 2.0 | 0.00 | 0.00 | 0.00 | 87 | 1016.8 |
| 20260506112341 | 61 | 351 | 0.0 | 1.0 | 0.00 | 0.00 | 0.00 | 87 | 1016.8 |
| 20260506112238 | 61 | 351 | 0.0 | 1.0 | 0.00 | 0.00 | 0.00 | 87 | 1016.8 |
| 20260506112139 | 61 | 351 | 0.0 | 1.0 | 0.00 | 0.00 | 0.00 | 86 | 1016.8 |
| 20260506112041 | 61 | 351 | 0.0 | 1.0 | 0.00 | 0.00 | 0.00 | 86 | 1016.8 |
| 20260506111940 | 61 | 351 | 0.0 | 0.0 | 0.00 | 0.00 | 0.00 | 86 | 1016.9 |
| 20260506111839 | 61 | 351 | 0.0 | 0.0 | 0.00 | 0.00 | 0.00 | 86 | 1016.8 |
| 20260506111738 | 61 | 351 | 0.0 | 0.0 | 0.00 | 0.00 | 0.00 | 86 | 1016.8 |
| 20260506111638 | 61 | 351 | 0.0 | 0.0 | 0.00 | 0.00 | 0.00 | 86 | 1016.9 |
| 20260506111540 | 61 | 351 | 0.0 | 0.0 | 0.00 | 0.00 | 0.00 | 86 | 1016.9 |
| 20260506111442 | 61 | 351 | 0.0 | 1.0 | 0.00 | 0.00 | 0.00 | 86 | 1017.0 |
| 20260506111340 | 61 | 351 | 0.0 | 1.0 | 0.00 | 0.00 | 0.00 | 86 | 1016.8 |
| 20260506111240 | 61 | 351 | 0.0 | 1.0 | 0.00 | 0.00 | 0.00 | 86 | 1016.8 |
| 20260506111138 | 61 | 351 | 0.0 | 1.0 | 0.00 | 0.00 | 0.00 | 86 | 1016.9 |
| 20260506111038 | 61 | 351 | 0.0 | 1.0 | 0.00 | 0.00 | 0.00 | 86 | 1016.9 |
| 20260506110948 | 61 | 351 | 0.0 | 1.0 | 0.00 | 0.00 | 0.00 | 86 | 1016.9 |
| 20260506110841 | 61 | 351 | 0.0 | 1.0 | 0.00 | 0.00 | 0.00 | 86 | 1016.9 |
| 20260506110806 | 61 | 351 | 0.0 | 1.0 | 0.00 | 0.00 | 0.00 | 86 | 1016.9 |
| 20260506110735 | 61 | 351 | 0.0 | 1.0 | 0.00 | 0.00 | 0.00 | 86 | 1016.9 |
| 20260506110630 | 61 | 351 | 0.0 | 1.0 | 0.00 | 0.00 | 0.00 | 86 | 1016.9 |
| 20260506110349 | 61 | 351 | 0.0 | 1.0 | 0.00 | 0.00 | 0.00 | 86 | 1016.9 |
| 20260506110325 | 61 | 351 | 0.0 | 1.0 | 0.00 | 0.00 | 0.00 | 86 | 1016.9 |
| 20260506110306 | 61 | 351 | 0.0 | 1.0 | 0.00 | 0.00 | 0.00 | 86 | 1017.0 |
| 20260506110229 | 61 | 351 | 0.0 | 1.0 | 0.00 | 0.00 | 0.00 | 86 | 1016.9 |
| 20260506105910 | 61 | 351 | 0.0 | 1.0 | 0.00 | 0.00 | 0.00 | 86 | 1017.0 |
| 20260506105810 | 61 | 351 | 0.0 | 1.0 | 0.00 | 0.00 | 0.00 | 86 | 1016.9 |
| 20260506105712 | 61 | 351 | 0.0 | 1.0 | 0.00 | 0.00 | 0.00 | 86 | 1017.0 |
| 20260506105613 | 61 | 351 | 0.0 | 1.0 | 0.00 | 0.00 | 0.00 | 86 | 1017.0 |
| 20260506105412 | 61 | 351 | 0.0 | 1.0 | 0.00 | 0.00 | 0.00 | 86 | 1017.0 |
| 20260506105310 | 61 | 351 | 0.0 | 1.0 | 0.00 | 0.00 | 0.00 | 86 | 1017.0 |
| 20260506105212 | 61 | 351 | 0.0 | 1.0 | 0.00 | 0.00 | 0.00 | 86 | 1017.0 |
| 20260506105113 | 61 | 351 | 0.0 | 1.0 | 0.00 | 0.00 | 0.00 | 86 | 1017.0 |
| 20260506104913 | 61 | 344 | 0.0 | 0.0 | 0.00 | 0.00 | 0.00 | 86 | 1017.1 |
| 20260506104811 | 61 | 344 | 0.0 | 0.0 | 0.00 | 0.00 | 0.00 | 86 | 1017.0 |
| 20260506104711 | 61 | 344 | 0.0 | 0.0 | 0.00 | 0.00 | 0.00 | 86 | 1017.1 |
| 20260506104613 | 61 | 344 | 0.0 | 0.0 | 0.00 | 0.00 | 0.00 | 86 | 1017.0 |
| 20260506104410 | 61 | 344 | 0.0 | 0.0 | 0.00 | 0.00 | 0.00 | 85 | 1017.1 |
| 20260506104309 | 61 | 344 | 0.0 | 0.0 | 0.00 | 0.00 | 0.00 | 85 | 1017.0 |
| 20260506104210 | 61 | 344 | 0.0 | 1.0 | 0.00 | 0.00 | 0.00 | 85 | 1017.1 |
| 20260506104116 | 61 | 344 | 0.0 | 2.0 | 0.00 | 0.00 | 0.00 | 85 | 1017.1 |
| 20260506104010 | 61 | 344 | 0.0 | 2.0 | 0.00 | 0.00 | 0.00 | 85 | 1017.0 |
| 20260506103903 | 61 | 344 | 0.0 | 2.0 | 0.00 | 0.00 | 0.00 | 85 | 1017.1 |
| 20260506103755 | 61 | 344 | 0.0 | 3.0 | 0.00 | 0.00 | 0.00 | 85 | 1017.1 |
| 20260506103703 | 61 | 344 | 0.0 | 3.0 | 0.00 | 0.00 | 0.00 | 85 | 1017.1 |
| 20260506103603 | 61 | 344 | 0.0 | 3.0 | 0.00 | 0.00 | 0.00 | 85 | 1017.0 |
| 20260506103510 | 61 | 344 | 0.0 | 3.0 | 0.00 | 0.00 | 0.00 | 85 | 1017.1 |
| 20260506103350 | 62 | 344 | 1.0 | 3.0 | 0.00 | 0.00 | 0.00 | 85 | 1017.1 |
| 20260506103146 | 61 | 319 | 1.0 | 3.0 | 0.00 | 0.00 | 0.00 | 85 | 1017.1 |
| 20260506103050 | 62 | 327 | 2.0 | 3.0 | 0.00 | 0.00 | 0.00 | 85 | 1017.1 |
| 20260506102939 | 62 | 346 | 2.0 | 3.0 | 0.00 | 0.00 | 0.00 | 85 | 1017.1 |
| 20260506102840 | 62 | 326 | 1.0 | 3.0 | 0.00 | 0.00 | 0.00 | 85 | 1017.1 |
| 20260506102742 | 62 | 5 | 1.0 | 3.0 | 0.00 | 0.00 | 0.00 | 85 | 1017.1 |
| 20260506102714 | 62 | 350 | 1.0 | 3.0 | 0.00 | 0.00 | 0.00 | 85 | 1017.1 |
| 20260506102539 | 62 | 355 | 1.0 | 3.0 | 0.00 | 0.00 | 0.00 | 85 | 1017.0 |
| 20260506102439 | 62 | 336 | 1.0 | 3.0 | 0.00 | 0.00 | 0.00 | 85 | 1017.1 |
| 20260506102339 | 62 | 337 | 2.0 | 3.0 | 0.00 | 0.00 | 0.00 | 84 | 1017.2 |
| 20260506102238 | 62 | 328 | 2.0 | 3.0 | 0.00 | 0.00 | 0.00 | 84 | 1017.2 |
| 20260506102137 | 62 | 327 | 2.0 | 3.0 | 0.00 | 0.00 | 0.00 | 84 | 1017.1 |
| 20260506102040 | 62 | 331 | 1.0 | 3.0 | 0.00 | 0.00 | 0.00 | 84 | 1017.2 |
| 20260506101942 | 62 | 333 | 1.0 | 3.0 | 0.00 | 0.00 | 0.00 | 84 | 1017.1 |
| 20260506101841 | 62 | 0 | 1.0 | 1.0 | 0.00 | 0.00 | 0.00 | 84 | 1017.1 |
| 20260506101737 | 62 | 0 | 1.0 | 1.0 | 0.00 | 0.00 | 0.00 | 84 | 1017.1 |
| 20260506101638 | 62 | 0 | 1.0 | 1.0 | 0.00 | 0.00 | 0.00 | 84 | 1017.1 |
| 20260506101541 | 62 | 0 | 1.0 | 1.0 | 0.00 | 0.00 | 0.00 | 84 | 1017.1 |
| 20260506101439 | 62 | 0 | 1.0 | 1.0 | 0.00 | 0.00 | 0.00 | 84 | 1017.1 |
| 20260506101338 | 62 | 0 | 0.0 | 1.0 | 0.00 | 0.00 | 0.00 | 84 | 1017.0 |
| 20260506101245 | 62 | 0 | 0.0 | 1.0 | 0.00 | 0.00 | 0.00 | 83 | 1017.1 |
| 20260506101138 | 62 | 0 | 0.0 | 1.0 | 0.00 | 0.00 | 0.00 | 83 | 1017.1 |
| 20260506101038 | 62 | 0 | 0.0 | 1.0 | 0.00 | 0.00 | 0.00 | 83 | 1017.0 |
| 20260506100937 | 62 | 0 | 0.0 | 1.0 | 0.00 | 0.00 | 0.00 | 83 | 1017.1 |
| 20260506100843 | 62 | 0 | 0.0 | 1.0 | 0.00 | 0.00 | 0.00 | 83 | 1017.1 |
| 20260506100736 | 62 | 0 | 0.0 | 1.0 | 0.00 | 0.00 | 0.00 | 83 | 1017.0 |
| 20260506100629 | 62 | 0 | 0.0 | 1.0 | 0.00 | 0.00 | 0.00 | 83 | 1017.1 |
| 20260506100528 | 62 | 0 | 0.0 | 1.0 | 0.00 | 0.00 | 0.00 | 83 | 1017.1 |
| 20260506100427 | 62 | 0 | 0.0 | 1.0 | 0.00 | 0.00 | 0.00 | 83 | 1017.0 |
| 20260506100322 | 62 | 0 | 0.0 | 1.0 | 0.00 | 0.00 | 0.00 | 83 | 1017.1 |
| 20260506100220 | 62 | 0 | 0.0 | 1.0 | 0.00 | 0.00 | 0.00 | 83 | 1017.1 |
| 20260506100130 | 62 | 50 | 0.0 | 1.0 | 0.00 | 0.00 | 0.00 | 83 | 1017.1 |
| 20260506100023 | 62 | 50 | 0.0 | 1.0 | 0.00 | 0.00 | 0.00 | 83 | 1017.1 |
| 20260506095917 | 62 | 50 | 0.0 | 1.0 | 0.00 | 0.00 | 0.00 | 83 | 1017.1 |
| 20260506095813 | 62 | 50 | 0.0 | 1.0 | 0.00 | 0.00 | 0.00 | 83 | 1017.1 |
| 20260506095712 | 62 | 50 | 0.0 | 1.0 | 0.00 | 0.00 | 0.00 | 83 | 1017.1 |
| 20260506095619 | 62 | 50 | 0.0 | 1.0 | 0.00 | 0.00 | 0.00 | 83 | 1017.0 |
| 20260506095414 | 62 | 50 | 0.0 | 1.0 | 0.00 | 0.00 | 0.00 | 83 | 1017.0 |
| 20260506095339 | 62 | 50 | 0.0 | 1.0 | 0.00 | 0.00 | 0.00 | 83 | 1017.0 |
| 20260506095318 | 62 | 24 | 0.0 | 0.0 | 0.00 | 0.00 | 0.00 | 83 | 1017.1 |
| 20260506095256 | 62 | 24 | 0.0 | 0.0 | 0.00 | 0.00 | 0.00 | 83 | 1017.1 |
| 20260506095225 | 62 | 24 | 0.0 | 0.0 | 0.00 | 0.00 | 0.00 | 83 | 1017.1 |
| 20260506094938 | 62 | 24 | 0.0 | 0.0 | 0.00 | 0.00 | 0.00 | 83 | 1017.0 |
| 20260506094916 | 62 | 24 | 0.0 | 0.0 | 0.00 | 0.00 | 0.00 | 83 | 1017.0 |
| 20260506094819 | 62 | 24 | 0.0 | 0.0 | 0.00 | 0.00 | 0.00 | 83 | 1017.1 |
| 20260506094758 | 62 | 24 | 0.0 | 0.0 | 0.00 | 0.00 | 0.00 | 83 | 1017.1 |
| 20260506094727 | 62 | 24 | 0.0 | 0.0 | 0.00 | 0.00 | 0.00 | 83 | 1017.0 |
| 20260506094417 | 62 | 24 | 0.0 | 0.0 | 0.00 | 0.00 | 0.00 | 83 | 1017.2 |
| 20260506094313 | 62 | 24 | 0.0 | 0.0 | 0.00 | 0.00 | 0.00 | 83 | 1017.0 |
| 20260506094116 | 63 | 24 | 0.0 | 2.0 | 0.00 | 0.00 | 0.00 | 83 | 1017.1 |
| 20260506093911 | 63 | 24 | 0.0 | 2.0 | 0.00 | 0.00 | 0.00 | 83 | 1017.0 |
| 20260506093810 | 63 | 24 | 0.0 | 4.0 | 0.00 | 0.00 | 0.00 | 83 | 1017.1 |
| 20260506093714 | 63 | 24 | 0.0 | 4.0 | 0.00 | 0.00 | 0.00 | 83 | 1017.1 |
| 20260506093614 | 63 | 24 | 0.0 | 4.0 | 0.00 | 0.00 | 0.00 | 83 | 1017.2 |
| 20260506093412 | 63 | 24 | 0.0 | 4.0 | 0.00 | 0.00 | 0.00 | 83 | 1017.1 |
| 20260506093314 | 63 | 24 | 0.0 | 4.0 | 0.00 | 0.00 | 0.00 | 83 | 1017.2 |
| 20260506093213 | 63 | 24 | 0.0 | 4.0 | 0.00 | 0.00 | 0.00 | 83 | 1017.0 |
| 20260506093130 | 63 | 349 | 1.0 | 4.0 | 0.00 | 0.00 | 0.00 | 83 | 1017.1 |
| 20260506093023 | 63 | 349 | 1.0 | 4.0 | 0.00 | 0.00 | 0.00 | 83 | 1017.1 |
| 20260506092911 | 63 | 333 | 0.0 | 4.0 | 0.00 | 0.00 | 0.00 | 83 | 1017.1 |
| 20260506092810 | 63 | 51 | 1.0 | 3.0 | 0.00 | 0.00 | 0.00 | 83 | 1017.0 |
| 20260506092716 | 63 | 52 | 1.0 | 3.0 | 0.00 | 0.00 | 0.00 | 83 | 1017.1 |
| 20260506092611 | 63 | 52 | 1.0 | 3.0 | 0.00 | 0.00 | 0.00 | 83 | 1017.1 |
| 20260506092410 | 63 | 35 | 1.0 | 3.0 | 0.00 | 0.00 | 0.00 | 83 | 1017.0 |
| 20260506092339 | 63 | 38 | 1.0 | 3.0 | 0.00 | 0.00 | 0.00 | 83 | 1017.0 |
| 20260506092313 | 63 | 33 | 1.0 | 3.0 | 0.00 | 0.00 | 0.00 | 83 | 1017.1 |
| 20260506092254 | 63 | 32 | 2.0 | 3.0 | 0.00 | 0.00 | 0.00 | 83 | 1017.1 |
| 20260506092223 | 63 | 42 | 2.0 | 3.0 | 0.00 | 0.00 | 0.00 | 83 | 1017.1 |
| 20260506091911 | 63 | 35 | 2.0 | 4.0 | 0.00 | 0.00 | 0.00 | 83 | 1017.1 |